<?xml version="1.0"?>
<gpx xmlns="http://www.topografix.com/GPX/1/1" xmlns:xsi="http://www.w3.org/2001/XMLSchema-instance" version="1.1" creator="GPX RubyGem 1.0.0 -- http://dougfales.github.io/gpx/" xsi:schemaLocation="http://www.topografix.com/GPX/1/1 http://www.topografix.com/GPX/1/1/gpx.xsd">
  <metadata>
    <name/>
    <time>2026-05-07T04:46:26+00:00</time>
    <bound minlat="90.0" minlon="180.0" maxlat="-90.0" maxlon="-180.0"/>
  </metadata>
  <trk>
    <name/>
    <trkseg>
      <trkpt lat="46.929145" lon="11.271621">
        <time>1970-01-01T00:00:00+00:00</time>
        <ele>1412.0</ele>
      </trkpt>
      <trkpt lat="46.929245" lon="11.271682">
        <time>1970-01-01T00:00:00+00:00</time>
        <ele>1411.0</ele>
      </trkpt>
      <trkpt lat="46.92927" lon="11.271721">
        <time>1970-01-01T00:00:00+00:00</time>
        <ele>1411.0</ele>
      </trkpt>
      <trkpt lat="46.92928" lon="11.271775">
        <time>1970-01-01T00:00:00+00:00</time>
        <ele>1411.0</ele>
      </trkpt>
      <trkpt lat="46.929271" lon="11.271815">
        <time>1970-01-01T00:00:00+00:00</time>
        <ele>1410.0</ele>
      </trkpt>
      <trkpt lat="46.929387" lon="11.271821">
        <time>1970-01-01T00:00:00+00:00</time>
        <ele>1412.0</ele>
      </trkpt>
      <trkpt lat="46.929511" lon="11.271714">
        <time>1970-01-01T00:00:00+00:00</time>
        <ele>1415.0</ele>
      </trkpt>
      <trkpt lat="46.929536" lon="11.271688">
        <time>1970-01-01T00:00:00+00:00</time>
        <ele>1415.0</ele>
      </trkpt>
      <trkpt lat="46.92966" lon="11.271792">
        <time>1970-01-01T00:00:00+00:00</time>
        <ele>1418.0</ele>
      </trkpt>
      <trkpt lat="46.92974" lon="11.271883">
        <time>1970-01-01T00:00:00+00:00</time>
        <ele>1419.0</ele>
      </trkpt>
      <trkpt lat="46.929787" lon="11.271968">
        <time>1970-01-01T00:00:00+00:00</time>
        <ele>1421.0</ele>
      </trkpt>
      <trkpt lat="46.929804" lon="11.271934">
        <time>1970-01-01T00:00:00+00:00</time>
        <ele>1422.0</ele>
      </trkpt>
      <trkpt lat="46.929777" lon="11.27177">
        <time>1970-01-01T00:00:00+00:00</time>
        <ele>1423.0</ele>
      </trkpt>
      <trkpt lat="46.929803" lon="11.271737">
        <time>1970-01-01T00:00:00+00:00</time>
        <ele>1425.0</ele>
      </trkpt>
      <trkpt lat="46.929889" lon="11.271891">
        <time>1970-01-01T00:00:00+00:00</time>
        <ele>1427.0</ele>
      </trkpt>
      <trkpt lat="46.929978" lon="11.271969">
        <time>1970-01-01T00:00:00+00:00</time>
        <ele>1432.0</ele>
      </trkpt>
      <trkpt lat="46.930002" lon="11.272201">
        <time>1970-01-01T00:00:00+00:00</time>
        <ele>1429.0</ele>
      </trkpt>
      <trkpt lat="46.930028" lon="11.272251">
        <time>1970-01-01T00:00:00+00:00</time>
        <ele>1429.0</ele>
      </trkpt>
      <trkpt lat="46.930115" lon="11.272309">
        <time>1970-01-01T00:00:00+00:00</time>
        <ele>1432.0</ele>
      </trkpt>
      <trkpt lat="46.930182" lon="11.272493">
        <time>1970-01-01T00:00:00+00:00</time>
        <ele>1432.0</ele>
      </trkpt>
      <trkpt lat="46.930369" lon="11.272655">
        <time>1970-01-01T00:00:00+00:00</time>
        <ele>1438.0</ele>
      </trkpt>
      <trkpt lat="46.930453" lon="11.272777">
        <time>1970-01-01T00:00:00+00:00</time>
        <ele>1441.0</ele>
      </trkpt>
      <trkpt lat="46.930554" lon="11.272823">
        <time>1970-01-01T00:00:00+00:00</time>
        <ele>1447.0</ele>
      </trkpt>
      <trkpt lat="46.930714" lon="11.272803">
        <time>1970-01-01T00:00:00+00:00</time>
        <ele>1455.0</ele>
      </trkpt>
      <trkpt lat="46.930734" lon="11.272769">
        <time>1970-01-01T00:00:00+00:00</time>
        <ele>1456.0</ele>
      </trkpt>
      <trkpt lat="46.930704" lon="11.272586">
        <time>1970-01-01T00:00:00+00:00</time>
        <ele>1458.0</ele>
      </trkpt>
      <trkpt lat="46.930689" lon="11.272314">
        <time>1970-01-01T00:00:00+00:00</time>
        <ele>1464.0</ele>
      </trkpt>
      <trkpt lat="46.930739" lon="11.272063">
        <time>1970-01-01T00:00:00+00:00</time>
        <ele>1474.0</ele>
      </trkpt>
      <trkpt lat="46.930814" lon="11.271915">
        <time>1970-01-01T00:00:00+00:00</time>
        <ele>1483.0</ele>
      </trkpt>
      <trkpt lat="46.931028" lon="11.271688">
        <time>1970-01-01T00:00:00+00:00</time>
        <ele>1494.0</ele>
      </trkpt>
      <trkpt lat="46.931056" lon="11.271635">
        <time>1970-01-01T00:00:00+00:00</time>
        <ele>1496.0</ele>
      </trkpt>
      <trkpt lat="46.931074" lon="11.271528">
        <time>1970-01-01T00:00:00+00:00</time>
        <ele>1501.0</ele>
      </trkpt>
      <trkpt lat="46.931503" lon="11.270921">
        <time>1970-01-01T00:00:00+00:00</time>
        <ele>1530.0</ele>
      </trkpt>
      <trkpt lat="46.932188" lon="11.270133">
        <time>1970-01-01T00:00:00+00:00</time>
        <ele>1542.0</ele>
      </trkpt>
      <trkpt lat="46.932739" lon="11.269353">
        <time>1970-01-01T00:00:00+00:00</time>
        <ele>1547.0</ele>
      </trkpt>
      <trkpt lat="46.932973" lon="11.268777">
        <time>1970-01-01T00:00:00+00:00</time>
        <ele>1551.0</ele>
      </trkpt>
      <trkpt lat="46.933218" lon="11.267807">
        <time>1970-01-01T00:00:00+00:00</time>
        <ele>1555.0</ele>
      </trkpt>
      <trkpt lat="46.933261" lon="11.267487">
        <time>1970-01-01T00:00:00+00:00</time>
        <ele>1561.0</ele>
      </trkpt>
      <trkpt lat="46.93324" lon="11.26721">
        <time>1970-01-01T00:00:00+00:00</time>
        <ele>1566.0</ele>
      </trkpt>
      <trkpt lat="46.93341" lon="11.26688">
        <time>1970-01-01T00:00:00+00:00</time>
        <ele>1566.0</ele>
      </trkpt>
      <trkpt lat="46.93357" lon="11.266432">
        <time>1970-01-01T00:00:00+00:00</time>
        <ele>1566.0</ele>
      </trkpt>
      <trkpt lat="46.933719" lon="11.265729">
        <time>1970-01-01T00:00:00+00:00</time>
        <ele>1571.0</ele>
      </trkpt>
      <trkpt lat="46.933939" lon="11.265227">
        <time>1970-01-01T00:00:00+00:00</time>
        <ele>1563.0</ele>
      </trkpt>
      <trkpt lat="46.933987" lon="11.265005">
        <time>1970-01-01T00:00:00+00:00</time>
        <ele>1568.0</ele>
      </trkpt>
      <trkpt lat="46.934004" lon="11.264782">
        <time>1970-01-01T00:00:00+00:00</time>
        <ele>1572.0</ele>
      </trkpt>
      <trkpt lat="46.933931" lon="11.264239">
        <time>1970-01-01T00:00:00+00:00</time>
        <ele>1584.0</ele>
      </trkpt>
      <trkpt lat="46.933961" lon="11.264073">
        <time>1970-01-01T00:00:00+00:00</time>
        <ele>1584.0</ele>
      </trkpt>
      <trkpt lat="46.933953" lon="11.263827">
        <time>1970-01-01T00:00:00+00:00</time>
        <ele>1590.0</ele>
      </trkpt>
      <trkpt lat="46.9341" lon="11.263635">
        <time>1970-01-01T00:00:00+00:00</time>
        <ele>1588.0</ele>
      </trkpt>
      <trkpt lat="46.934133" lon="11.263508">
        <time>1970-01-01T00:00:00+00:00</time>
        <ele>1590.0</ele>
      </trkpt>
      <trkpt lat="46.934213" lon="11.263374">
        <time>1970-01-01T00:00:00+00:00</time>
        <ele>1590.0</ele>
      </trkpt>
      <trkpt lat="46.934556" lon="11.262673">
        <time>1970-01-01T00:00:00+00:00</time>
        <ele>1597.0</ele>
      </trkpt>
      <trkpt lat="46.934617" lon="11.26253">
        <time>1970-01-01T00:00:00+00:00</time>
        <ele>1596.0</ele>
      </trkpt>
      <trkpt lat="46.934706" lon="11.262084">
        <time>1970-01-01T00:00:00+00:00</time>
        <ele>1597.0</ele>
      </trkpt>
      <trkpt lat="46.934853" lon="11.261758">
        <time>1970-01-01T00:00:00+00:00</time>
        <ele>1592.0</ele>
      </trkpt>
      <trkpt lat="46.935087" lon="11.261451">
        <time>1970-01-01T00:00:00+00:00</time>
        <ele>1589.0</ele>
      </trkpt>
      <trkpt lat="46.935126" lon="11.261108">
        <time>1970-01-01T00:00:00+00:00</time>
        <ele>1592.0</ele>
      </trkpt>
      <trkpt lat="46.935124" lon="11.260868">
        <time>1970-01-01T00:00:00+00:00</time>
        <ele>1594.0</ele>
      </trkpt>
      <trkpt lat="46.93514" lon="11.260791">
        <time>1970-01-01T00:00:00+00:00</time>
        <ele>1594.0</ele>
      </trkpt>
      <trkpt lat="46.935166" lon="11.260779">
        <time>1970-01-01T00:00:00+00:00</time>
        <ele>1594.0</ele>
      </trkpt>
      <trkpt lat="46.935172" lon="11.260724">
        <time>1970-01-01T00:00:00+00:00</time>
        <ele>1594.0</ele>
      </trkpt>
      <trkpt lat="46.935101" lon="11.260529">
        <time>1970-01-01T00:00:00+00:00</time>
        <ele>1598.0</ele>
      </trkpt>
      <trkpt lat="46.935128" lon="11.260455">
        <time>1970-01-01T00:00:00+00:00</time>
        <ele>1598.0</ele>
      </trkpt>
      <trkpt lat="46.935134" lon="11.26039">
        <time>1970-01-01T00:00:00+00:00</time>
        <ele>1598.0</ele>
      </trkpt>
      <trkpt lat="46.935066" lon="11.260293">
        <time>1970-01-01T00:00:00+00:00</time>
        <ele>1601.0</ele>
      </trkpt>
      <trkpt lat="46.935072" lon="11.26019">
        <time>1970-01-01T00:00:00+00:00</time>
        <ele>1601.0</ele>
      </trkpt>
      <trkpt lat="46.935055" lon="11.260099">
        <time>1970-01-01T00:00:00+00:00</time>
        <ele>1602.0</ele>
      </trkpt>
      <trkpt lat="46.935065" lon="11.260006">
        <time>1970-01-01T00:00:00+00:00</time>
        <ele>1603.0</ele>
      </trkpt>
      <trkpt lat="46.935052" lon="11.259938">
        <time>1970-01-01T00:00:00+00:00</time>
        <ele>1606.0</ele>
      </trkpt>
      <trkpt lat="46.935106" lon="11.259717">
        <time>1970-01-01T00:00:00+00:00</time>
        <ele>1611.0</ele>
      </trkpt>
      <trkpt lat="46.935117" lon="11.259593">
        <time>1970-01-01T00:00:00+00:00</time>
        <ele>1614.0</ele>
      </trkpt>
      <trkpt lat="46.935197" lon="11.259466">
        <time>1970-01-01T00:00:00+00:00</time>
        <ele>1616.0</ele>
      </trkpt>
      <trkpt lat="46.935209" lon="11.259304">
        <time>1970-01-01T00:00:00+00:00</time>
        <ele>1619.0</ele>
      </trkpt>
      <trkpt lat="46.935227" lon="11.259261">
        <time>1970-01-01T00:00:00+00:00</time>
        <ele>1620.0</ele>
      </trkpt>
      <trkpt lat="46.935363" lon="11.259202">
        <time>1970-01-01T00:00:00+00:00</time>
        <ele>1620.0</ele>
      </trkpt>
      <trkpt lat="46.93541" lon="11.259152">
        <time>1970-01-01T00:00:00+00:00</time>
        <ele>1621.0</ele>
      </trkpt>
      <trkpt lat="46.935507" lon="11.259083">
        <time>1970-01-01T00:00:00+00:00</time>
        <ele>1623.0</ele>
      </trkpt>
      <trkpt lat="46.935551" lon="11.259014">
        <time>1970-01-01T00:00:00+00:00</time>
        <ele>1625.0</ele>
      </trkpt>
      <trkpt lat="46.935566" lon="11.258934">
        <time>1970-01-01T00:00:00+00:00</time>
        <ele>1626.0</ele>
      </trkpt>
      <trkpt lat="46.935534" lon="11.258739">
        <time>1970-01-01T00:00:00+00:00</time>
        <ele>1626.0</ele>
      </trkpt>
      <trkpt lat="46.935553" lon="11.258668">
        <time>1970-01-01T00:00:00+00:00</time>
        <ele>1627.0</ele>
      </trkpt>
      <trkpt lat="46.935502" lon="11.258336">
        <time>1970-01-01T00:00:00+00:00</time>
        <ele>1637.0</ele>
      </trkpt>
      <trkpt lat="46.935479" lon="11.258304">
        <time>1970-01-01T00:00:00+00:00</time>
        <ele>1638.0</ele>
      </trkpt>
      <trkpt lat="46.935416" lon="11.25829">
        <time>1970-01-01T00:00:00+00:00</time>
        <ele>1639.0</ele>
      </trkpt>
      <trkpt lat="46.935392" lon="11.258252">
        <time>1970-01-01T00:00:00+00:00</time>
        <ele>1641.0</ele>
      </trkpt>
      <trkpt lat="46.935394" lon="11.258206">
        <time>1970-01-01T00:00:00+00:00</time>
        <ele>1643.0</ele>
      </trkpt>
      <trkpt lat="46.935416" lon="11.258146">
        <time>1970-01-01T00:00:00+00:00</time>
        <ele>1645.0</ele>
      </trkpt>
      <trkpt lat="46.935428" lon="11.25795">
        <time>1970-01-01T00:00:00+00:00</time>
        <ele>1653.0</ele>
      </trkpt>
      <trkpt lat="46.935463" lon="11.257927">
        <time>1970-01-01T00:00:00+00:00</time>
        <ele>1653.0</ele>
      </trkpt>
      <trkpt lat="46.935489" lon="11.257861">
        <time>1970-01-01T00:00:00+00:00</time>
        <ele>1655.0</ele>
      </trkpt>
      <trkpt lat="46.935469" lon="11.257519">
        <time>1970-01-01T00:00:00+00:00</time>
        <ele>1661.0</ele>
      </trkpt>
      <trkpt lat="46.935491" lon="11.257398">
        <time>1970-01-01T00:00:00+00:00</time>
        <ele>1665.0</ele>
      </trkpt>
      <trkpt lat="46.935579" lon="11.257176">
        <time>1970-01-01T00:00:00+00:00</time>
        <ele>1670.0</ele>
      </trkpt>
      <trkpt lat="46.935585" lon="11.256963">
        <time>1970-01-01T00:00:00+00:00</time>
        <ele>1676.0</ele>
      </trkpt>
      <trkpt lat="46.935607" lon="11.256897">
        <time>1970-01-01T00:00:00+00:00</time>
        <ele>1676.0</ele>
      </trkpt>
      <trkpt lat="46.935752" lon="11.256762">
        <time>1970-01-01T00:00:00+00:00</time>
        <ele>1677.0</ele>
      </trkpt>
      <trkpt lat="46.935787" lon="11.256661">
        <time>1970-01-01T00:00:00+00:00</time>
        <ele>1679.0</ele>
      </trkpt>
      <trkpt lat="46.935801" lon="11.256373">
        <time>1970-01-01T00:00:00+00:00</time>
        <ele>1685.0</ele>
      </trkpt>
      <trkpt lat="46.935778" lon="11.256319">
        <time>1970-01-01T00:00:00+00:00</time>
        <ele>1688.0</ele>
      </trkpt>
      <trkpt lat="46.935706" lon="11.256322">
        <time>1970-01-01T00:00:00+00:00</time>
        <ele>1692.0</ele>
      </trkpt>
      <trkpt lat="46.935765" lon="11.256054">
        <time>1970-01-01T00:00:00+00:00</time>
        <ele>1699.0</ele>
      </trkpt>
      <trkpt lat="46.93592" lon="11.255762">
        <time>1970-01-01T00:00:00+00:00</time>
        <ele>1696.0</ele>
      </trkpt>
      <trkpt lat="46.936061" lon="11.255401">
        <time>1970-01-01T00:00:00+00:00</time>
        <ele>1695.0</ele>
      </trkpt>
      <trkpt lat="46.936272" lon="11.254935">
        <time>1970-01-01T00:00:00+00:00</time>
        <ele>1696.0</ele>
      </trkpt>
      <trkpt lat="46.936311" lon="11.254752">
        <time>1970-01-01T00:00:00+00:00</time>
        <ele>1696.0</ele>
      </trkpt>
      <trkpt lat="46.93634" lon="11.254141">
        <time>1970-01-01T00:00:00+00:00</time>
        <ele>1701.0</ele>
      </trkpt>
      <trkpt lat="46.936391" lon="11.253984">
        <time>1970-01-01T00:00:00+00:00</time>
        <ele>1701.0</ele>
      </trkpt>
      <trkpt lat="46.936544" lon="11.25376">
        <time>1970-01-01T00:00:00+00:00</time>
        <ele>1701.0</ele>
      </trkpt>
      <trkpt lat="46.936738" lon="11.253752">
        <time>1970-01-01T00:00:00+00:00</time>
        <ele>1701.0</ele>
      </trkpt>
      <trkpt lat="46.936822" lon="11.253816">
        <time>1970-01-01T00:00:00+00:00</time>
        <ele>1701.0</ele>
      </trkpt>
      <trkpt lat="46.936856" lon="11.253948">
        <time>1970-01-01T00:00:00+00:00</time>
        <ele>1701.0</ele>
      </trkpt>
      <trkpt lat="46.936856" lon="11.253995">
        <time>1970-01-01T00:00:00+00:00</time>
        <ele>1701.0</ele>
      </trkpt>
      <trkpt lat="46.93699" lon="11.253833">
        <time>1970-01-01T00:00:00+00:00</time>
        <ele>1705.0</ele>
      </trkpt>
      <trkpt lat="46.937119" lon="11.253723">
        <time>1970-01-01T00:00:00+00:00</time>
        <ele>1707.0</ele>
      </trkpt>
      <trkpt lat="46.937209" lon="11.253562">
        <time>1970-01-01T00:00:00+00:00</time>
        <ele>1707.0</ele>
      </trkpt>
      <trkpt lat="46.937306" lon="11.253124">
        <time>1970-01-01T00:00:00+00:00</time>
        <ele>1703.0</ele>
      </trkpt>
      <trkpt lat="46.937413" lon="11.252842">
        <time>1970-01-01T00:00:00+00:00</time>
        <ele>1703.0</ele>
      </trkpt>
      <trkpt lat="46.937512" lon="11.252822">
        <time>1970-01-01T00:00:00+00:00</time>
        <ele>1704.0</ele>
      </trkpt>
      <trkpt lat="46.937617" lon="11.252828">
        <time>1970-01-01T00:00:00+00:00</time>
        <ele>1705.0</ele>
      </trkpt>
      <trkpt lat="46.937781" lon="11.252909">
        <time>1970-01-01T00:00:00+00:00</time>
        <ele>1708.0</ele>
      </trkpt>
      <trkpt lat="46.938033" lon="11.252873">
        <time>1970-01-01T00:00:00+00:00</time>
        <ele>1709.0</ele>
      </trkpt>
      <trkpt lat="46.938253" lon="11.252914">
        <time>1970-01-01T00:00:00+00:00</time>
        <ele>1710.0</ele>
      </trkpt>
      <trkpt lat="46.938374" lon="11.252965">
        <time>1970-01-01T00:00:00+00:00</time>
        <ele>1710.0</ele>
      </trkpt>
      <trkpt lat="46.938578" lon="11.253009">
        <time>1970-01-01T00:00:00+00:00</time>
        <ele>1712.0</ele>
      </trkpt>
      <trkpt lat="46.93867" lon="11.252998">
        <time>1970-01-01T00:00:00+00:00</time>
        <ele>1711.0</ele>
      </trkpt>
      <trkpt lat="46.938799" lon="11.252926">
        <time>1970-01-01T00:00:00+00:00</time>
        <ele>1710.0</ele>
      </trkpt>
      <trkpt lat="46.938948" lon="11.25291">
        <time>1970-01-01T00:00:00+00:00</time>
        <ele>1710.0</ele>
      </trkpt>
      <trkpt lat="46.93908" lon="11.252818">
        <time>1970-01-01T00:00:00+00:00</time>
        <ele>1709.0</ele>
      </trkpt>
      <trkpt lat="46.939189" lon="11.252779">
        <time>1970-01-01T00:00:00+00:00</time>
        <ele>1709.0</ele>
      </trkpt>
      <trkpt lat="46.939269" lon="11.252787">
        <time>1970-01-01T00:00:00+00:00</time>
        <ele>1709.0</ele>
      </trkpt>
      <trkpt lat="46.939509" lon="11.252956">
        <time>1970-01-01T00:00:00+00:00</time>
        <ele>1712.0</ele>
      </trkpt>
      <trkpt lat="46.939786" lon="11.253337">
        <time>1970-01-01T00:00:00+00:00</time>
        <ele>1710.0</ele>
      </trkpt>
      <trkpt lat="46.93993" lon="11.253588">
        <time>1970-01-01T00:00:00+00:00</time>
        <ele>1708.0</ele>
      </trkpt>
      <trkpt lat="46.940082" lon="11.253645">
        <time>1970-01-01T00:00:00+00:00</time>
        <ele>1705.0</ele>
      </trkpt>
      <trkpt lat="46.940353" lon="11.253705">
        <time>1970-01-01T00:00:00+00:00</time>
        <ele>1704.0</ele>
      </trkpt>
      <trkpt lat="46.940483" lon="11.253684">
        <time>1970-01-01T00:00:00+00:00</time>
        <ele>1704.0</ele>
      </trkpt>
      <trkpt lat="46.940762" lon="11.253579">
        <time>1970-01-01T00:00:00+00:00</time>
        <ele>1704.0</ele>
      </trkpt>
      <trkpt lat="46.940951" lon="11.253561">
        <time>1970-01-01T00:00:00+00:00</time>
        <ele>1704.0</ele>
      </trkpt>
      <trkpt lat="46.941189" lon="11.2536">
        <time>1970-01-01T00:00:00+00:00</time>
        <ele>1705.0</ele>
      </trkpt>
      <trkpt lat="46.941354" lon="11.253579">
        <time>1970-01-01T00:00:00+00:00</time>
        <ele>1707.0</ele>
      </trkpt>
      <trkpt lat="46.941694" lon="11.253367">
        <time>1970-01-01T00:00:00+00:00</time>
        <ele>1711.0</ele>
      </trkpt>
      <trkpt lat="46.942051" lon="11.253348">
        <time>1970-01-01T00:00:00+00:00</time>
        <ele>1718.0</ele>
      </trkpt>
      <trkpt lat="46.942185" lon="11.253375">
        <time>1970-01-01T00:00:00+00:00</time>
        <ele>1720.0</ele>
      </trkpt>
      <trkpt lat="46.942406" lon="11.253342">
        <time>1970-01-01T00:00:00+00:00</time>
        <ele>1721.0</ele>
      </trkpt>
      <trkpt lat="46.942819" lon="11.252948">
        <time>1970-01-01T00:00:00+00:00</time>
        <ele>1731.0</ele>
      </trkpt>
      <trkpt lat="46.942939" lon="11.252795">
        <time>1970-01-01T00:00:00+00:00</time>
        <ele>1732.0</ele>
      </trkpt>
      <trkpt lat="46.943073" lon="11.252521">
        <time>1970-01-01T00:00:00+00:00</time>
        <ele>1734.0</ele>
      </trkpt>
      <trkpt lat="46.943199" lon="11.25233">
        <time>1970-01-01T00:00:00+00:00</time>
        <ele>1739.0</ele>
      </trkpt>
      <trkpt lat="46.943311" lon="11.252109">
        <time>1970-01-01T00:00:00+00:00</time>
        <ele>1743.0</ele>
      </trkpt>
      <trkpt lat="46.943422" lon="11.252018">
        <time>1970-01-01T00:00:00+00:00</time>
        <ele>1748.0</ele>
      </trkpt>
      <trkpt lat="46.943421" lon="11.251833">
        <time>1970-01-01T00:00:00+00:00</time>
        <ele>1745.0</ele>
      </trkpt>
      <trkpt lat="46.943852" lon="11.251369">
        <time>1970-01-01T00:00:00+00:00</time>
        <ele>1764.0</ele>
      </trkpt>
      <trkpt lat="46.944135" lon="11.251298">
        <time>1970-01-01T00:00:00+00:00</time>
        <ele>1778.0</ele>
      </trkpt>
      <trkpt lat="46.944279" lon="11.251135">
        <time>1970-01-01T00:00:00+00:00</time>
        <ele>1786.0</ele>
      </trkpt>
      <trkpt lat="46.944306" lon="11.25088">
        <time>1970-01-01T00:00:00+00:00</time>
        <ele>1788.0</ele>
      </trkpt>
      <trkpt lat="46.944243" lon="11.250728">
        <time>1970-01-01T00:00:00+00:00</time>
        <ele>1782.0</ele>
      </trkpt>
      <trkpt lat="46.944283" lon="11.250674">
        <time>1970-01-01T00:00:00+00:00</time>
        <ele>1786.0</ele>
      </trkpt>
      <trkpt lat="46.944349" lon="11.25073">
        <time>1970-01-01T00:00:00+00:00</time>
        <ele>1792.0</ele>
      </trkpt>
      <trkpt lat="46.944441" lon="11.250373">
        <time>1970-01-01T00:00:00+00:00</time>
        <ele>1804.0</ele>
      </trkpt>
      <trkpt lat="46.944325" lon="11.250005">
        <time>1970-01-01T00:00:00+00:00</time>
        <ele>1799.0</ele>
      </trkpt>
      <trkpt lat="46.944349" lon="11.249777">
        <time>1970-01-01T00:00:00+00:00</time>
        <ele>1803.0</ele>
      </trkpt>
      <trkpt lat="46.944376" lon="11.249765">
        <time>1970-01-01T00:00:00+00:00</time>
        <ele>1806.0</ele>
      </trkpt>
      <trkpt lat="46.94439" lon="11.249724">
        <time>1970-01-01T00:00:00+00:00</time>
        <ele>1807.0</ele>
      </trkpt>
      <trkpt lat="46.94441" lon="11.249594">
        <time>1970-01-01T00:00:00+00:00</time>
        <ele>1810.0</ele>
      </trkpt>
      <trkpt lat="46.944398" lon="11.249402">
        <time>1970-01-01T00:00:00+00:00</time>
        <ele>1809.0</ele>
      </trkpt>
      <trkpt lat="46.94441" lon="11.249281">
        <time>1970-01-01T00:00:00+00:00</time>
        <ele>1811.0</ele>
      </trkpt>
      <trkpt lat="46.944455" lon="11.249153">
        <time>1970-01-01T00:00:00+00:00</time>
        <ele>1812.0</ele>
      </trkpt>
      <trkpt lat="46.944506" lon="11.249111">
        <time>1970-01-01T00:00:00+00:00</time>
        <ele>1814.0</ele>
      </trkpt>
      <trkpt lat="46.944553" lon="11.249029">
        <time>1970-01-01T00:00:00+00:00</time>
        <ele>1814.0</ele>
      </trkpt>
      <trkpt lat="46.94456" lon="11.24892">
        <time>1970-01-01T00:00:00+00:00</time>
        <ele>1811.0</ele>
      </trkpt>
      <trkpt lat="46.944619" lon="11.248882">
        <time>1970-01-01T00:00:00+00:00</time>
        <ele>1813.0</ele>
      </trkpt>
      <trkpt lat="46.944647" lon="11.248822">
        <time>1970-01-01T00:00:00+00:00</time>
        <ele>1813.0</ele>
      </trkpt>
      <trkpt lat="46.944767" lon="11.248779">
        <time>1970-01-01T00:00:00+00:00</time>
        <ele>1820.0</ele>
      </trkpt>
      <trkpt lat="46.944981" lon="11.248622">
        <time>1970-01-01T00:00:00+00:00</time>
        <ele>1830.0</ele>
      </trkpt>
      <trkpt lat="46.94519" lon="11.248215">
        <time>1970-01-01T00:00:00+00:00</time>
        <ele>1834.0</ele>
      </trkpt>
      <trkpt lat="46.945254" lon="11.248053">
        <time>1970-01-01T00:00:00+00:00</time>
        <ele>1835.0</ele>
      </trkpt>
      <trkpt lat="46.94541" lon="11.247788">
        <time>1970-01-01T00:00:00+00:00</time>
        <ele>1842.0</ele>
      </trkpt>
      <trkpt lat="46.94544" lon="11.247778">
        <time>1970-01-01T00:00:00+00:00</time>
        <ele>1843.0</ele>
      </trkpt>
      <trkpt lat="46.945457" lon="11.247746">
        <time>1970-01-01T00:00:00+00:00</time>
        <ele>1844.0</ele>
      </trkpt>
      <trkpt lat="46.945484" lon="11.247757">
        <time>1970-01-01T00:00:00+00:00</time>
        <ele>1845.0</ele>
      </trkpt>
      <trkpt lat="46.945488" lon="11.247973">
        <time>1970-01-01T00:00:00+00:00</time>
        <ele>1847.0</ele>
      </trkpt>
      <trkpt lat="46.945507" lon="11.24799">
        <time>1970-01-01T00:00:00+00:00</time>
        <ele>1848.0</ele>
      </trkpt>
      <trkpt lat="46.94555" lon="11.247929">
        <time>1970-01-01T00:00:00+00:00</time>
        <ele>1849.0</ele>
      </trkpt>
      <trkpt lat="46.945534" lon="11.248081">
        <time>1970-01-01T00:00:00+00:00</time>
        <ele>1850.0</ele>
      </trkpt>
      <trkpt lat="46.945545" lon="11.248118">
        <time>1970-01-01T00:00:00+00:00</time>
        <ele>1851.0</ele>
      </trkpt>
      <trkpt lat="46.945595" lon="11.248118">
        <time>1970-01-01T00:00:00+00:00</time>
        <ele>1854.0</ele>
      </trkpt>
      <trkpt lat="46.94564" lon="11.248054">
        <time>1970-01-01T00:00:00+00:00</time>
        <ele>1856.0</ele>
      </trkpt>
      <trkpt lat="46.94565" lon="11.248098">
        <time>1970-01-01T00:00:00+00:00</time>
        <ele>1858.0</ele>
      </trkpt>
      <trkpt lat="46.945683" lon="11.248105">
        <time>1970-01-01T00:00:00+00:00</time>
        <ele>1860.0</ele>
      </trkpt>
      <trkpt lat="46.945717" lon="11.248015">
        <time>1970-01-01T00:00:00+00:00</time>
        <ele>1861.0</ele>
      </trkpt>
      <trkpt lat="46.945766" lon="11.247993">
        <time>1970-01-01T00:00:00+00:00</time>
        <ele>1864.0</ele>
      </trkpt>
      <trkpt lat="46.94577" lon="11.248114">
        <time>1970-01-01T00:00:00+00:00</time>
        <ele>1866.0</ele>
      </trkpt>
      <trkpt lat="46.945797" lon="11.248117">
        <time>1970-01-01T00:00:00+00:00</time>
        <ele>1867.0</ele>
      </trkpt>
      <trkpt lat="46.9459" lon="11.248009">
        <time>1970-01-01T00:00:00+00:00</time>
        <ele>1873.0</ele>
      </trkpt>
      <trkpt lat="46.945923" lon="11.248023">
        <time>1970-01-01T00:00:00+00:00</time>
        <ele>1874.0</ele>
      </trkpt>
      <trkpt lat="46.94594" lon="11.248115">
        <time>1970-01-01T00:00:00+00:00</time>
        <ele>1876.0</ele>
      </trkpt>
      <trkpt lat="46.945944" lon="11.248315">
        <time>1970-01-01T00:00:00+00:00</time>
        <ele>1879.0</ele>
      </trkpt>
      <trkpt lat="46.945927" lon="11.248532">
        <time>1970-01-01T00:00:00+00:00</time>
        <ele>1883.0</ele>
      </trkpt>
      <trkpt lat="46.945949" lon="11.248609">
        <time>1970-01-01T00:00:00+00:00</time>
        <ele>1886.0</ele>
      </trkpt>
      <trkpt lat="46.9459" lon="11.248857">
        <time>1970-01-01T00:00:00+00:00</time>
        <ele>1894.0</ele>
      </trkpt>
      <trkpt lat="46.945927" lon="11.24885">
        <time>1970-01-01T00:00:00+00:00</time>
        <ele>1895.0</ele>
      </trkpt>
      <trkpt lat="46.946" lon="11.248774">
        <time>1970-01-01T00:00:00+00:00</time>
        <ele>1894.0</ele>
      </trkpt>
      <trkpt lat="46.946119" lon="11.248625">
        <time>1970-01-01T00:00:00+00:00</time>
        <ele>1894.0</ele>
      </trkpt>
      <trkpt lat="46.946125" lon="11.248773">
        <time>1970-01-01T00:00:00+00:00</time>
        <ele>1900.0</ele>
      </trkpt>
      <trkpt lat="46.94607" lon="11.248986">
        <time>1970-01-01T00:00:00+00:00</time>
        <ele>1908.0</ele>
      </trkpt>
      <trkpt lat="46.94608" lon="11.249046">
        <time>1970-01-01T00:00:00+00:00</time>
        <ele>1912.0</ele>
      </trkpt>
      <trkpt lat="46.946106" lon="11.249062">
        <time>1970-01-01T00:00:00+00:00</time>
        <ele>1914.0</ele>
      </trkpt>
      <trkpt lat="46.946182" lon="11.248948">
        <time>1970-01-01T00:00:00+00:00</time>
        <ele>1912.0</ele>
      </trkpt>
      <trkpt lat="46.94623" lon="11.248908">
        <time>1970-01-01T00:00:00+00:00</time>
        <ele>1913.0</ele>
      </trkpt>
      <trkpt lat="46.946238" lon="11.24898">
        <time>1970-01-01T00:00:00+00:00</time>
        <ele>1916.0</ele>
      </trkpt>
      <trkpt lat="46.946224" lon="11.24908">
        <time>1970-01-01T00:00:00+00:00</time>
        <ele>1921.0</ele>
      </trkpt>
      <trkpt lat="46.946245" lon="11.249101">
        <time>1970-01-01T00:00:00+00:00</time>
        <ele>1923.0</ele>
      </trkpt>
      <trkpt lat="46.94632" lon="11.24893">
        <time>1970-01-01T00:00:00+00:00</time>
        <ele>1919.0</ele>
      </trkpt>
      <trkpt lat="46.94636" lon="11.248898">
        <time>1970-01-01T00:00:00+00:00</time>
        <ele>1921.0</ele>
      </trkpt>
      <trkpt lat="46.946414" lon="11.24894">
        <time>1970-01-01T00:00:00+00:00</time>
        <ele>1926.0</ele>
      </trkpt>
      <trkpt lat="46.946399" lon="11.249072">
        <time>1970-01-01T00:00:00+00:00</time>
        <ele>1930.0</ele>
      </trkpt>
      <trkpt lat="46.946417" lon="11.249104">
        <time>1970-01-01T00:00:00+00:00</time>
        <ele>1933.0</ele>
      </trkpt>
      <trkpt lat="46.946477" lon="11.249042">
        <time>1970-01-01T00:00:00+00:00</time>
        <ele>1934.0</ele>
      </trkpt>
      <trkpt lat="46.94652" lon="11.248913">
        <time>1970-01-01T00:00:00+00:00</time>
        <ele>1932.0</ele>
      </trkpt>
      <trkpt lat="46.946537" lon="11.248899">
        <time>1970-01-01T00:00:00+00:00</time>
        <ele>1932.0</ele>
      </trkpt>
      <trkpt lat="46.946574" lon="11.248903">
        <time>1970-01-01T00:00:00+00:00</time>
        <ele>1935.0</ele>
      </trkpt>
      <trkpt lat="46.946598" lon="11.248953">
        <time>1970-01-01T00:00:00+00:00</time>
        <ele>1938.0</ele>
      </trkpt>
      <trkpt lat="46.946598" lon="11.249026">
        <time>1970-01-01T00:00:00+00:00</time>
        <ele>1941.0</ele>
      </trkpt>
      <trkpt lat="46.946646" lon="11.248952">
        <time>1970-01-01T00:00:00+00:00</time>
        <ele>1941.0</ele>
      </trkpt>
      <trkpt lat="46.946694" lon="11.248818">
        <time>1970-01-01T00:00:00+00:00</time>
        <ele>1940.0</ele>
      </trkpt>
      <trkpt lat="46.946735" lon="11.248893">
        <time>1970-01-01T00:00:00+00:00</time>
        <ele>1947.0</ele>
      </trkpt>
      <trkpt lat="46.946809" lon="11.248825">
        <time>1970-01-01T00:00:00+00:00</time>
        <ele>1951.0</ele>
      </trkpt>
      <trkpt lat="46.946882" lon="11.248652">
        <time>1970-01-01T00:00:00+00:00</time>
        <ele>1955.0</ele>
      </trkpt>
      <trkpt lat="46.946908" lon="11.248642">
        <time>1970-01-01T00:00:00+00:00</time>
        <ele>1957.0</ele>
      </trkpt>
      <trkpt lat="46.946983" lon="11.248677">
        <time>1970-01-01T00:00:00+00:00</time>
        <ele>1965.0</ele>
      </trkpt>
      <trkpt lat="46.947007" lon="11.24861">
        <time>1970-01-01T00:00:00+00:00</time>
        <ele>1967.0</ele>
      </trkpt>
      <trkpt lat="46.946976" lon="11.248304">
        <time>1970-01-01T00:00:00+00:00</time>
        <ele>1965.0</ele>
      </trkpt>
      <trkpt lat="46.946862" lon="11.248256">
        <time>1970-01-01T00:00:00+00:00</time>
        <ele>1952.0</ele>
      </trkpt>
      <trkpt lat="46.946806" lon="11.248161">
        <time>1970-01-01T00:00:00+00:00</time>
        <ele>1946.0</ele>
      </trkpt>
      <trkpt lat="46.946789" lon="11.248062">
        <time>1970-01-01T00:00:00+00:00</time>
        <ele>1944.0</ele>
      </trkpt>
      <trkpt lat="46.9468" lon="11.247884">
        <time>1970-01-01T00:00:00+00:00</time>
        <ele>1948.0</ele>
      </trkpt>
      <trkpt lat="46.946844" lon="11.247781">
        <time>1970-01-01T00:00:00+00:00</time>
        <ele>1956.0</ele>
      </trkpt>
      <trkpt lat="46.946838" lon="11.247702">
        <time>1970-01-01T00:00:00+00:00</time>
        <ele>1957.0</ele>
      </trkpt>
      <trkpt lat="46.946767" lon="11.247591">
        <time>1970-01-01T00:00:00+00:00</time>
        <ele>1949.0</ele>
      </trkpt>
      <trkpt lat="46.946723" lon="11.24745">
        <time>1970-01-01T00:00:00+00:00</time>
        <ele>1946.0</ele>
      </trkpt>
      <trkpt lat="46.94676" lon="11.247286">
        <time>1970-01-01T00:00:00+00:00</time>
        <ele>1953.0</ele>
      </trkpt>
      <trkpt lat="46.946857" lon="11.247085">
        <time>1970-01-01T00:00:00+00:00</time>
        <ele>1965.0</ele>
      </trkpt>
      <trkpt lat="46.946915" lon="11.247">
        <time>1970-01-01T00:00:00+00:00</time>
        <ele>1969.0</ele>
      </trkpt>
      <trkpt lat="46.947024" lon="11.246955">
        <time>1970-01-01T00:00:00+00:00</time>
        <ele>1978.0</ele>
      </trkpt>
      <trkpt lat="46.946999" lon="11.247107">
        <time>1970-01-01T00:00:00+00:00</time>
        <ele>1980.0</ele>
      </trkpt>
      <trkpt lat="46.947023" lon="11.247125">
        <time>1970-01-01T00:00:00+00:00</time>
        <ele>1983.0</ele>
      </trkpt>
      <trkpt lat="46.947131" lon="11.247048">
        <time>1970-01-01T00:00:00+00:00</time>
        <ele>1985.0</ele>
      </trkpt>
      <trkpt lat="46.947199" lon="11.24703">
        <time>1970-01-01T00:00:00+00:00</time>
        <ele>1988.0</ele>
      </trkpt>
      <trkpt lat="46.947154" lon="11.247171">
        <time>1970-01-01T00:00:00+00:00</time>
        <ele>1989.0</ele>
      </trkpt>
      <trkpt lat="46.94735" lon="11.247124">
        <time>1970-01-01T00:00:00+00:00</time>
        <ele>2000.0</ele>
      </trkpt>
      <trkpt lat="46.947388" lon="11.247087">
        <time>1970-01-01T00:00:00+00:00</time>
        <ele>2001.0</ele>
      </trkpt>
      <trkpt lat="46.947496" lon="11.246904">
        <time>1970-01-01T00:00:00+00:00</time>
        <ele>2008.0</ele>
      </trkpt>
      <trkpt lat="46.947587" lon="11.246651">
        <time>1970-01-01T00:00:00+00:00</time>
        <ele>2013.0</ele>
      </trkpt>
      <trkpt lat="46.947542" lon="11.246481">
        <time>1970-01-01T00:00:00+00:00</time>
        <ele>2010.0</ele>
      </trkpt>
      <trkpt lat="46.94763" lon="11.246173">
        <time>1970-01-01T00:00:00+00:00</time>
        <ele>2019.0</ele>
      </trkpt>
      <trkpt lat="46.947783" lon="11.245847">
        <time>1970-01-01T00:00:00+00:00</time>
        <ele>2025.0</ele>
      </trkpt>
      <trkpt lat="46.947832" lon="11.245682">
        <time>1970-01-01T00:00:00+00:00</time>
        <ele>2026.0</ele>
      </trkpt>
      <trkpt lat="46.947935" lon="11.245508">
        <time>1970-01-01T00:00:00+00:00</time>
        <ele>2029.0</ele>
      </trkpt>
      <trkpt lat="46.948007" lon="11.245449">
        <time>1970-01-01T00:00:00+00:00</time>
        <ele>2031.0</ele>
      </trkpt>
      <trkpt lat="46.948076" lon="11.24534">
        <time>1970-01-01T00:00:00+00:00</time>
        <ele>2032.0</ele>
      </trkpt>
      <trkpt lat="46.948227" lon="11.245165">
        <time>1970-01-01T00:00:00+00:00</time>
        <ele>2031.0</ele>
      </trkpt>
      <trkpt lat="46.948393" lon="11.245012">
        <time>1970-01-01T00:00:00+00:00</time>
        <ele>2031.0</ele>
      </trkpt>
      <trkpt lat="46.94857" lon="11.244793">
        <time>1970-01-01T00:00:00+00:00</time>
        <ele>2031.0</ele>
      </trkpt>
      <trkpt lat="46.948625" lon="11.244661">
        <time>1970-01-01T00:00:00+00:00</time>
        <ele>2028.0</ele>
      </trkpt>
      <trkpt lat="46.948751" lon="11.244553">
        <time>1970-01-01T00:00:00+00:00</time>
        <ele>2032.0</ele>
      </trkpt>
      <trkpt lat="46.94884" lon="11.244433">
        <time>1970-01-01T00:00:00+00:00</time>
        <ele>2034.0</ele>
      </trkpt>
      <trkpt lat="46.949104" lon="11.243787">
        <time>1970-01-01T00:00:00+00:00</time>
        <ele>2036.0</ele>
      </trkpt>
      <trkpt lat="46.949178" lon="11.243686">
        <time>1970-01-01T00:00:00+00:00</time>
        <ele>2039.0</ele>
      </trkpt>
      <trkpt lat="46.949287" lon="11.243643">
        <time>1970-01-01T00:00:00+00:00</time>
        <ele>2045.0</ele>
      </trkpt>
      <trkpt lat="46.949402" lon="11.243489">
        <time>1970-01-01T00:00:00+00:00</time>
        <ele>2044.0</ele>
      </trkpt>
      <trkpt lat="46.949469" lon="11.243429">
        <time>1970-01-01T00:00:00+00:00</time>
        <ele>2045.0</ele>
      </trkpt>
      <trkpt lat="46.949484" lon="11.24357">
        <time>1970-01-01T00:00:00+00:00</time>
        <ele>2054.0</ele>
      </trkpt>
      <trkpt lat="46.949627" lon="11.243346">
        <time>1970-01-01T00:00:00+00:00</time>
        <ele>2051.0</ele>
      </trkpt>
      <trkpt lat="46.949768" lon="11.243168">
        <time>1970-01-01T00:00:00+00:00</time>
        <ele>2055.0</ele>
      </trkpt>
      <trkpt lat="46.949827" lon="11.24303">
        <time>1970-01-01T00:00:00+00:00</time>
        <ele>2055.0</ele>
      </trkpt>
      <trkpt lat="46.949836" lon="11.242923">
        <time>1970-01-01T00:00:00+00:00</time>
        <ele>2054.0</ele>
      </trkpt>
      <trkpt lat="46.949747" lon="11.24288">
        <time>1970-01-01T00:00:00+00:00</time>
        <ele>2048.0</ele>
      </trkpt>
      <trkpt lat="46.949911" lon="11.242281">
        <time>1970-01-01T00:00:00+00:00</time>
        <ele>2052.0</ele>
      </trkpt>
      <trkpt lat="46.949937" lon="11.242052">
        <time>1970-01-01T00:00:00+00:00</time>
        <ele>2051.0</ele>
      </trkpt>
      <trkpt lat="46.950018" lon="11.24182">
        <time>1970-01-01T00:00:00+00:00</time>
        <ele>2053.0</ele>
      </trkpt>
      <trkpt lat="46.950057" lon="11.241407">
        <time>1970-01-01T00:00:00+00:00</time>
        <ele>2053.0</ele>
      </trkpt>
      <trkpt lat="46.950108" lon="11.241163">
        <time>1970-01-01T00:00:00+00:00</time>
        <ele>2053.0</ele>
      </trkpt>
      <trkpt lat="46.950194" lon="11.240924">
        <time>1970-01-01T00:00:00+00:00</time>
        <ele>2056.0</ele>
      </trkpt>
      <trkpt lat="46.950282" lon="11.240801">
        <time>1970-01-01T00:00:00+00:00</time>
        <ele>2059.0</ele>
      </trkpt>
      <trkpt lat="46.950287" lon="11.240487">
        <time>1970-01-01T00:00:00+00:00</time>
        <ele>2059.0</ele>
      </trkpt>
      <trkpt lat="46.950345" lon="11.240286">
        <time>1970-01-01T00:00:00+00:00</time>
        <ele>2060.0</ele>
      </trkpt>
      <trkpt lat="46.95047" lon="11.240036">
        <time>1970-01-01T00:00:00+00:00</time>
        <ele>2066.0</ele>
      </trkpt>
      <trkpt lat="46.950571" lon="11.239743">
        <time>1970-01-01T00:00:00+00:00</time>
        <ele>2072.0</ele>
      </trkpt>
      <trkpt lat="46.950813" lon="11.23932">
        <time>1970-01-01T00:00:00+00:00</time>
        <ele>2077.0</ele>
      </trkpt>
      <trkpt lat="46.951104" lon="11.239121">
        <time>1970-01-01T00:00:00+00:00</time>
        <ele>2092.0</ele>
      </trkpt>
      <trkpt lat="46.951309" lon="11.238785">
        <time>1970-01-01T00:00:00+00:00</time>
        <ele>2095.0</ele>
      </trkpt>
      <trkpt lat="46.951544" lon="11.237907">
        <time>1970-01-01T00:00:00+00:00</time>
        <ele>2099.0</ele>
      </trkpt>
      <trkpt lat="46.95169" lon="11.237243">
        <time>1970-01-01T00:00:00+00:00</time>
        <ele>2106.0</ele>
      </trkpt>
      <trkpt lat="46.951892" lon="11.236675">
        <time>1970-01-01T00:00:00+00:00</time>
        <ele>2113.0</ele>
      </trkpt>
      <trkpt lat="46.95226" lon="11.236223">
        <time>1970-01-01T00:00:00+00:00</time>
        <ele>2129.0</ele>
      </trkpt>
      <trkpt lat="46.952341" lon="11.236005">
        <time>1970-01-01T00:00:00+00:00</time>
        <ele>2133.0</ele>
      </trkpt>
      <trkpt lat="46.952289" lon="11.235367">
        <time>1970-01-01T00:00:00+00:00</time>
        <ele>2136.0</ele>
      </trkpt>
      <trkpt lat="46.952024" lon="11.234589">
        <time>1970-01-01T00:00:00+00:00</time>
        <ele>2139.0</ele>
      </trkpt>
      <trkpt lat="46.952042" lon="11.234386">
        <time>1970-01-01T00:00:00+00:00</time>
        <ele>2146.0</ele>
      </trkpt>
      <trkpt lat="46.951984" lon="11.234185">
        <time>1970-01-01T00:00:00+00:00</time>
        <ele>2153.0</ele>
      </trkpt>
      <trkpt lat="46.951971" lon="11.233949">
        <time>1970-01-01T00:00:00+00:00</time>
        <ele>2165.0</ele>
      </trkpt>
      <trkpt lat="46.952022" lon="11.233937">
        <time>1970-01-01T00:00:00+00:00</time>
        <ele>2166.0</ele>
      </trkpt>
      <trkpt lat="46.952027" lon="11.233906">
        <time>1970-01-01T00:00:00+00:00</time>
        <ele>2168.0</ele>
      </trkpt>
      <trkpt lat="46.951924" lon="11.233773">
        <time>1970-01-01T00:00:00+00:00</time>
        <ele>2171.0</ele>
      </trkpt>
      <trkpt lat="46.951942" lon="11.233735">
        <time>1970-01-01T00:00:00+00:00</time>
        <ele>2172.0</ele>
      </trkpt>
      <trkpt lat="46.952083" lon="11.23372">
        <time>1970-01-01T00:00:00+00:00</time>
        <ele>2177.0</ele>
      </trkpt>
      <trkpt lat="46.952084" lon="11.233683">
        <time>1970-01-01T00:00:00+00:00</time>
        <ele>2178.0</ele>
      </trkpt>
      <trkpt lat="46.951968" lon="11.23332">
        <time>1970-01-01T00:00:00+00:00</time>
        <ele>2191.0</ele>
      </trkpt>
      <trkpt lat="46.951916" lon="11.233229">
        <time>1970-01-01T00:00:00+00:00</time>
        <ele>2196.0</ele>
      </trkpt>
      <trkpt lat="46.951847" lon="11.233187">
        <time>1970-01-01T00:00:00+00:00</time>
        <ele>2198.0</ele>
      </trkpt>
      <trkpt lat="46.951588" lon="11.233158">
        <time>1970-01-01T00:00:00+00:00</time>
        <ele>2197.0</ele>
      </trkpt>
      <trkpt lat="46.9515" lon="11.233066">
        <time>1970-01-01T00:00:00+00:00</time>
        <ele>2198.0</ele>
      </trkpt>
      <trkpt lat="46.951331" lon="11.232973">
        <time>1970-01-01T00:00:00+00:00</time>
        <ele>2195.0</ele>
      </trkpt>
      <trkpt lat="46.951243" lon="11.232816">
        <time>1970-01-01T00:00:00+00:00</time>
        <ele>2194.0</ele>
      </trkpt>
      <trkpt lat="46.951104" lon="11.232501">
        <time>1970-01-01T00:00:00+00:00</time>
        <ele>2190.0</ele>
      </trkpt>
      <trkpt lat="46.951079" lon="11.232314">
        <time>1970-01-01T00:00:00+00:00</time>
        <ele>2189.0</ele>
      </trkpt>
      <trkpt lat="46.951035" lon="11.232222">
        <time>1970-01-01T00:00:00+00:00</time>
        <ele>2185.0</ele>
      </trkpt>
      <trkpt lat="46.950973" lon="11.232265">
        <time>1970-01-01T00:00:00+00:00</time>
        <ele>2181.0</ele>
      </trkpt>
      <trkpt lat="46.950939" lon="11.232378">
        <time>1970-01-01T00:00:00+00:00</time>
        <ele>2179.0</ele>
      </trkpt>
      <trkpt lat="46.950958" lon="11.232458">
        <time>1970-01-01T00:00:00+00:00</time>
        <ele>2181.0</ele>
      </trkpt>
      <trkpt lat="46.950925" lon="11.232598">
        <time>1970-01-01T00:00:00+00:00</time>
        <ele>2180.0</ele>
      </trkpt>
      <trkpt lat="46.950852" lon="11.23265">
        <time>1970-01-01T00:00:00+00:00</time>
        <ele>2177.0</ele>
      </trkpt>
      <trkpt lat="46.950731" lon="11.232393">
        <time>1970-01-01T00:00:00+00:00</time>
        <ele>2170.0</ele>
      </trkpt>
      <trkpt lat="46.950592" lon="11.232383">
        <time>1970-01-01T00:00:00+00:00</time>
        <ele>2163.0</ele>
      </trkpt>
      <trkpt lat="46.950544" lon="11.232496">
        <time>1970-01-01T00:00:00+00:00</time>
        <ele>2162.0</ele>
      </trkpt>
      <trkpt lat="46.950522" lon="11.232711">
        <time>1970-01-01T00:00:00+00:00</time>
        <ele>2163.0</ele>
      </trkpt>
      <trkpt lat="46.950482" lon="11.232807">
        <time>1970-01-01T00:00:00+00:00</time>
        <ele>2162.0</ele>
      </trkpt>
      <trkpt lat="46.950379" lon="11.232802">
        <time>1970-01-01T00:00:00+00:00</time>
        <ele>2156.0</ele>
      </trkpt>
      <trkpt lat="46.950306" lon="11.232613">
        <time>1970-01-01T00:00:00+00:00</time>
        <ele>2152.0</ele>
      </trkpt>
      <trkpt lat="46.950207" lon="11.232516">
        <time>1970-01-01T00:00:00+00:00</time>
        <ele>2148.0</ele>
      </trkpt>
      <trkpt lat="46.95011" lon="11.232489">
        <time>1970-01-01T00:00:00+00:00</time>
        <ele>2145.0</ele>
      </trkpt>
      <trkpt lat="46.95004" lon="11.232781">
        <time>1970-01-01T00:00:00+00:00</time>
        <ele>2142.0</ele>
      </trkpt>
      <trkpt lat="46.950052" lon="11.232881">
        <time>1970-01-01T00:00:00+00:00</time>
        <ele>2142.0</ele>
      </trkpt>
      <trkpt lat="46.949876" lon="11.233025">
        <time>1970-01-01T00:00:00+00:00</time>
        <ele>2133.0</ele>
      </trkpt>
      <trkpt lat="46.949703" lon="11.233009">
        <time>1970-01-01T00:00:00+00:00</time>
        <ele>2128.0</ele>
      </trkpt>
      <trkpt lat="46.949554" lon="11.23293">
        <time>1970-01-01T00:00:00+00:00</time>
        <ele>2129.0</ele>
      </trkpt>
      <trkpt lat="46.949504" lon="11.23301">
        <time>1970-01-01T00:00:00+00:00</time>
        <ele>2127.0</ele>
      </trkpt>
      <trkpt lat="46.949413" lon="11.23302">
        <time>1970-01-01T00:00:00+00:00</time>
        <ele>2127.0</ele>
      </trkpt>
      <trkpt lat="46.949212" lon="11.23284">
        <time>1970-01-01T00:00:00+00:00</time>
        <ele>2133.0</ele>
      </trkpt>
      <trkpt lat="46.949118" lon="11.232557">
        <time>1970-01-01T00:00:00+00:00</time>
        <ele>2142.0</ele>
      </trkpt>
      <trkpt lat="46.948943" lon="11.232442">
        <time>1970-01-01T00:00:00+00:00</time>
        <ele>2145.0</ele>
      </trkpt>
      <trkpt lat="46.948767" lon="11.232033">
        <time>1970-01-01T00:00:00+00:00</time>
        <ele>2147.0</ele>
      </trkpt>
      <trkpt lat="46.948659" lon="11.231856">
        <time>1970-01-01T00:00:00+00:00</time>
        <ele>2146.0</ele>
      </trkpt>
      <trkpt lat="46.948471" lon="11.231788">
        <time>1970-01-01T00:00:00+00:00</time>
        <ele>2145.0</ele>
      </trkpt>
      <trkpt lat="46.948346" lon="11.23182">
        <time>1970-01-01T00:00:00+00:00</time>
        <ele>2145.0</ele>
      </trkpt>
      <trkpt lat="46.94829" lon="11.231741">
        <time>1970-01-01T00:00:00+00:00</time>
        <ele>2143.0</ele>
      </trkpt>
      <trkpt lat="46.94829" lon="11.231741">
        <time>1970-01-01T00:00:00+00:00</time>
        <ele>2143.0</ele>
      </trkpt>
      <trkpt lat="46.948346" lon="11.23182">
        <time>1970-01-01T00:00:00+00:00</time>
        <ele>2145.0</ele>
      </trkpt>
      <trkpt lat="46.948471" lon="11.231788">
        <time>1970-01-01T00:00:00+00:00</time>
        <ele>2145.0</ele>
      </trkpt>
      <trkpt lat="46.948659" lon="11.231856">
        <time>1970-01-01T00:00:00+00:00</time>
        <ele>2146.0</ele>
      </trkpt>
      <trkpt lat="46.948767" lon="11.232033">
        <time>1970-01-01T00:00:00+00:00</time>
        <ele>2147.0</ele>
      </trkpt>
      <trkpt lat="46.948943" lon="11.232442">
        <time>1970-01-01T00:00:00+00:00</time>
        <ele>2145.0</ele>
      </trkpt>
      <trkpt lat="46.949118" lon="11.232557">
        <time>1970-01-01T00:00:00+00:00</time>
        <ele>2142.0</ele>
      </trkpt>
      <trkpt lat="46.949212" lon="11.23284">
        <time>1970-01-01T00:00:00+00:00</time>
        <ele>2133.0</ele>
      </trkpt>
      <trkpt lat="46.949413" lon="11.23302">
        <time>1970-01-01T00:00:00+00:00</time>
        <ele>2127.0</ele>
      </trkpt>
      <trkpt lat="46.949504" lon="11.23301">
        <time>1970-01-01T00:00:00+00:00</time>
        <ele>2127.0</ele>
      </trkpt>
      <trkpt lat="46.949554" lon="11.23293">
        <time>1970-01-01T00:00:00+00:00</time>
        <ele>2129.0</ele>
      </trkpt>
      <trkpt lat="46.949703" lon="11.233009">
        <time>1970-01-01T00:00:00+00:00</time>
        <ele>2128.0</ele>
      </trkpt>
      <trkpt lat="46.949876" lon="11.233025">
        <time>1970-01-01T00:00:00+00:00</time>
        <ele>2133.0</ele>
      </trkpt>
      <trkpt lat="46.950052" lon="11.232881">
        <time>1970-01-01T00:00:00+00:00</time>
        <ele>2142.0</ele>
      </trkpt>
      <trkpt lat="46.95004" lon="11.232781">
        <time>1970-01-01T00:00:00+00:00</time>
        <ele>2142.0</ele>
      </trkpt>
      <trkpt lat="46.95011" lon="11.232489">
        <time>1970-01-01T00:00:00+00:00</time>
        <ele>2145.0</ele>
      </trkpt>
      <trkpt lat="46.950207" lon="11.232516">
        <time>1970-01-01T00:00:00+00:00</time>
        <ele>2148.0</ele>
      </trkpt>
      <trkpt lat="46.950306" lon="11.232613">
        <time>1970-01-01T00:00:00+00:00</time>
        <ele>2152.0</ele>
      </trkpt>
      <trkpt lat="46.950379" lon="11.232802">
        <time>1970-01-01T00:00:00+00:00</time>
        <ele>2156.0</ele>
      </trkpt>
      <trkpt lat="46.950482" lon="11.232807">
        <time>1970-01-01T00:00:00+00:00</time>
        <ele>2162.0</ele>
      </trkpt>
      <trkpt lat="46.950522" lon="11.232711">
        <time>1970-01-01T00:00:00+00:00</time>
        <ele>2163.0</ele>
      </trkpt>
      <trkpt lat="46.950544" lon="11.232496">
        <time>1970-01-01T00:00:00+00:00</time>
        <ele>2162.0</ele>
      </trkpt>
      <trkpt lat="46.950592" lon="11.232383">
        <time>1970-01-01T00:00:00+00:00</time>
        <ele>2163.0</ele>
      </trkpt>
      <trkpt lat="46.950731" lon="11.232393">
        <time>1970-01-01T00:00:00+00:00</time>
        <ele>2170.0</ele>
      </trkpt>
      <trkpt lat="46.950852" lon="11.23265">
        <time>1970-01-01T00:00:00+00:00</time>
        <ele>2177.0</ele>
      </trkpt>
      <trkpt lat="46.950925" lon="11.232598">
        <time>1970-01-01T00:00:00+00:00</time>
        <ele>2180.0</ele>
      </trkpt>
      <trkpt lat="46.950958" lon="11.232458">
        <time>1970-01-01T00:00:00+00:00</time>
        <ele>2181.0</ele>
      </trkpt>
      <trkpt lat="46.950939" lon="11.232378">
        <time>1970-01-01T00:00:00+00:00</time>
        <ele>2179.0</ele>
      </trkpt>
      <trkpt lat="46.950973" lon="11.232265">
        <time>1970-01-01T00:00:00+00:00</time>
        <ele>2181.0</ele>
      </trkpt>
      <trkpt lat="46.951035" lon="11.232222">
        <time>1970-01-01T00:00:00+00:00</time>
        <ele>2185.0</ele>
      </trkpt>
      <trkpt lat="46.951079" lon="11.232314">
        <time>1970-01-01T00:00:00+00:00</time>
        <ele>2189.0</ele>
      </trkpt>
      <trkpt lat="46.951104" lon="11.232501">
        <time>1970-01-01T00:00:00+00:00</time>
        <ele>2190.0</ele>
      </trkpt>
      <trkpt lat="46.951243" lon="11.232816">
        <time>1970-01-01T00:00:00+00:00</time>
        <ele>2194.0</ele>
      </trkpt>
      <trkpt lat="46.951331" lon="11.232973">
        <time>1970-01-01T00:00:00+00:00</time>
        <ele>2195.0</ele>
      </trkpt>
      <trkpt lat="46.9515" lon="11.233066">
        <time>1970-01-01T00:00:00+00:00</time>
        <ele>2198.0</ele>
      </trkpt>
      <trkpt lat="46.951588" lon="11.233158">
        <time>1970-01-01T00:00:00+00:00</time>
        <ele>2197.0</ele>
      </trkpt>
      <trkpt lat="46.951847" lon="11.233187">
        <time>1970-01-01T00:00:00+00:00</time>
        <ele>2198.0</ele>
      </trkpt>
      <trkpt lat="46.951916" lon="11.233229">
        <time>1970-01-01T00:00:00+00:00</time>
        <ele>2196.0</ele>
      </trkpt>
      <trkpt lat="46.951968" lon="11.23332">
        <time>1970-01-01T00:00:00+00:00</time>
        <ele>2191.0</ele>
      </trkpt>
      <trkpt lat="46.952084" lon="11.233683">
        <time>1970-01-01T00:00:00+00:00</time>
        <ele>2178.0</ele>
      </trkpt>
      <trkpt lat="46.952083" lon="11.23372">
        <time>1970-01-01T00:00:00+00:00</time>
        <ele>2177.0</ele>
      </trkpt>
      <trkpt lat="46.951942" lon="11.233735">
        <time>1970-01-01T00:00:00+00:00</time>
        <ele>2172.0</ele>
      </trkpt>
      <trkpt lat="46.951924" lon="11.233773">
        <time>1970-01-01T00:00:00+00:00</time>
        <ele>2171.0</ele>
      </trkpt>
      <trkpt lat="46.952027" lon="11.233906">
        <time>1970-01-01T00:00:00+00:00</time>
        <ele>2168.0</ele>
      </trkpt>
      <trkpt lat="46.952022" lon="11.233937">
        <time>1970-01-01T00:00:00+00:00</time>
        <ele>2166.0</ele>
      </trkpt>
      <trkpt lat="46.951971" lon="11.233949">
        <time>1970-01-01T00:00:00+00:00</time>
        <ele>2165.0</ele>
      </trkpt>
      <trkpt lat="46.951984" lon="11.234185">
        <time>1970-01-01T00:00:00+00:00</time>
        <ele>2153.0</ele>
      </trkpt>
      <trkpt lat="46.952042" lon="11.234386">
        <time>1970-01-01T00:00:00+00:00</time>
        <ele>2146.0</ele>
      </trkpt>
      <trkpt lat="46.952024" lon="11.234589">
        <time>1970-01-01T00:00:00+00:00</time>
        <ele>2139.0</ele>
      </trkpt>
      <trkpt lat="46.952289" lon="11.235367">
        <time>1970-01-01T00:00:00+00:00</time>
        <ele>2136.0</ele>
      </trkpt>
      <trkpt lat="46.952341" lon="11.236005">
        <time>1970-01-01T00:00:00+00:00</time>
        <ele>2133.0</ele>
      </trkpt>
      <trkpt lat="46.95226" lon="11.236223">
        <time>1970-01-01T00:00:00+00:00</time>
        <ele>2129.0</ele>
      </trkpt>
      <trkpt lat="46.951892" lon="11.236675">
        <time>1970-01-01T00:00:00+00:00</time>
        <ele>2113.0</ele>
      </trkpt>
      <trkpt lat="46.95169" lon="11.237243">
        <time>1970-01-01T00:00:00+00:00</time>
        <ele>2106.0</ele>
      </trkpt>
      <trkpt lat="46.951544" lon="11.237907">
        <time>1970-01-01T00:00:00+00:00</time>
        <ele>2099.0</ele>
      </trkpt>
      <trkpt lat="46.951309" lon="11.238785">
        <time>1970-01-01T00:00:00+00:00</time>
        <ele>2095.0</ele>
      </trkpt>
      <trkpt lat="46.951104" lon="11.239121">
        <time>1970-01-01T00:00:00+00:00</time>
        <ele>2092.0</ele>
      </trkpt>
      <trkpt lat="46.950813" lon="11.23932">
        <time>1970-01-01T00:00:00+00:00</time>
        <ele>2077.0</ele>
      </trkpt>
      <trkpt lat="46.950571" lon="11.239743">
        <time>1970-01-01T00:00:00+00:00</time>
        <ele>2072.0</ele>
      </trkpt>
      <trkpt lat="46.95047" lon="11.240036">
        <time>1970-01-01T00:00:00+00:00</time>
        <ele>2066.0</ele>
      </trkpt>
      <trkpt lat="46.950345" lon="11.240286">
        <time>1970-01-01T00:00:00+00:00</time>
        <ele>2060.0</ele>
      </trkpt>
      <trkpt lat="46.950287" lon="11.240487">
        <time>1970-01-01T00:00:00+00:00</time>
        <ele>2059.0</ele>
      </trkpt>
      <trkpt lat="46.950282" lon="11.240801">
        <time>1970-01-01T00:00:00+00:00</time>
        <ele>2059.0</ele>
      </trkpt>
      <trkpt lat="46.950194" lon="11.240924">
        <time>1970-01-01T00:00:00+00:00</time>
        <ele>2056.0</ele>
      </trkpt>
      <trkpt lat="46.950108" lon="11.241163">
        <time>1970-01-01T00:00:00+00:00</time>
        <ele>2053.0</ele>
      </trkpt>
      <trkpt lat="46.950057" lon="11.241407">
        <time>1970-01-01T00:00:00+00:00</time>
        <ele>2053.0</ele>
      </trkpt>
      <trkpt lat="46.950018" lon="11.24182">
        <time>1970-01-01T00:00:00+00:00</time>
        <ele>2053.0</ele>
      </trkpt>
      <trkpt lat="46.949937" lon="11.242052">
        <time>1970-01-01T00:00:00+00:00</time>
        <ele>2051.0</ele>
      </trkpt>
      <trkpt lat="46.949911" lon="11.242281">
        <time>1970-01-01T00:00:00+00:00</time>
        <ele>2052.0</ele>
      </trkpt>
      <trkpt lat="46.949747" lon="11.24288">
        <time>1970-01-01T00:00:00+00:00</time>
        <ele>2048.0</ele>
      </trkpt>
      <trkpt lat="46.949836" lon="11.242923">
        <time>1970-01-01T00:00:00+00:00</time>
        <ele>2054.0</ele>
      </trkpt>
      <trkpt lat="46.949827" lon="11.24303">
        <time>1970-01-01T00:00:00+00:00</time>
        <ele>2055.0</ele>
      </trkpt>
      <trkpt lat="46.949768" lon="11.243168">
        <time>1970-01-01T00:00:00+00:00</time>
        <ele>2055.0</ele>
      </trkpt>
      <trkpt lat="46.949627" lon="11.243346">
        <time>1970-01-01T00:00:00+00:00</time>
        <ele>2051.0</ele>
      </trkpt>
      <trkpt lat="46.949484" lon="11.24357">
        <time>1970-01-01T00:00:00+00:00</time>
        <ele>2054.0</ele>
      </trkpt>
      <trkpt lat="46.949469" lon="11.243429">
        <time>1970-01-01T00:00:00+00:00</time>
        <ele>2045.0</ele>
      </trkpt>
      <trkpt lat="46.949402" lon="11.243489">
        <time>1970-01-01T00:00:00+00:00</time>
        <ele>2044.0</ele>
      </trkpt>
      <trkpt lat="46.949287" lon="11.243643">
        <time>1970-01-01T00:00:00+00:00</time>
        <ele>2045.0</ele>
      </trkpt>
      <trkpt lat="46.949178" lon="11.243686">
        <time>1970-01-01T00:00:00+00:00</time>
        <ele>2039.0</ele>
      </trkpt>
      <trkpt lat="46.949104" lon="11.243787">
        <time>1970-01-01T00:00:00+00:00</time>
        <ele>2036.0</ele>
      </trkpt>
      <trkpt lat="46.94884" lon="11.244433">
        <time>1970-01-01T00:00:00+00:00</time>
        <ele>2034.0</ele>
      </trkpt>
      <trkpt lat="46.948751" lon="11.244553">
        <time>1970-01-01T00:00:00+00:00</time>
        <ele>2032.0</ele>
      </trkpt>
      <trkpt lat="46.948625" lon="11.244661">
        <time>1970-01-01T00:00:00+00:00</time>
        <ele>2028.0</ele>
      </trkpt>
      <trkpt lat="46.94857" lon="11.244793">
        <time>1970-01-01T00:00:00+00:00</time>
        <ele>2031.0</ele>
      </trkpt>
      <trkpt lat="46.948393" lon="11.245012">
        <time>1970-01-01T00:00:00+00:00</time>
        <ele>2031.0</ele>
      </trkpt>
      <trkpt lat="46.948227" lon="11.245165">
        <time>1970-01-01T00:00:00+00:00</time>
        <ele>2031.0</ele>
      </trkpt>
      <trkpt lat="46.948076" lon="11.24534">
        <time>1970-01-01T00:00:00+00:00</time>
        <ele>2032.0</ele>
      </trkpt>
      <trkpt lat="46.948007" lon="11.245449">
        <time>1970-01-01T00:00:00+00:00</time>
        <ele>2031.0</ele>
      </trkpt>
      <trkpt lat="46.947935" lon="11.245508">
        <time>1970-01-01T00:00:00+00:00</time>
        <ele>2029.0</ele>
      </trkpt>
      <trkpt lat="46.947832" lon="11.245682">
        <time>1970-01-01T00:00:00+00:00</time>
        <ele>2026.0</ele>
      </trkpt>
      <trkpt lat="46.947783" lon="11.245847">
        <time>1970-01-01T00:00:00+00:00</time>
        <ele>2025.0</ele>
      </trkpt>
      <trkpt lat="46.94763" lon="11.246173">
        <time>1970-01-01T00:00:00+00:00</time>
        <ele>2019.0</ele>
      </trkpt>
      <trkpt lat="46.947542" lon="11.246481">
        <time>1970-01-01T00:00:00+00:00</time>
        <ele>2010.0</ele>
      </trkpt>
      <trkpt lat="46.947587" lon="11.246651">
        <time>1970-01-01T00:00:00+00:00</time>
        <ele>2013.0</ele>
      </trkpt>
      <trkpt lat="46.947496" lon="11.246904">
        <time>1970-01-01T00:00:00+00:00</time>
        <ele>2008.0</ele>
      </trkpt>
      <trkpt lat="46.947388" lon="11.247087">
        <time>1970-01-01T00:00:00+00:00</time>
        <ele>2001.0</ele>
      </trkpt>
      <trkpt lat="46.94735" lon="11.247124">
        <time>1970-01-01T00:00:00+00:00</time>
        <ele>2000.0</ele>
      </trkpt>
      <trkpt lat="46.947154" lon="11.247171">
        <time>1970-01-01T00:00:00+00:00</time>
        <ele>1989.0</ele>
      </trkpt>
      <trkpt lat="46.947199" lon="11.24703">
        <time>1970-01-01T00:00:00+00:00</time>
        <ele>1988.0</ele>
      </trkpt>
      <trkpt lat="46.947131" lon="11.247048">
        <time>1970-01-01T00:00:00+00:00</time>
        <ele>1985.0</ele>
      </trkpt>
      <trkpt lat="46.947023" lon="11.247125">
        <time>1970-01-01T00:00:00+00:00</time>
        <ele>1983.0</ele>
      </trkpt>
      <trkpt lat="46.946999" lon="11.247107">
        <time>1970-01-01T00:00:00+00:00</time>
        <ele>1980.0</ele>
      </trkpt>
      <trkpt lat="46.947024" lon="11.246955">
        <time>1970-01-01T00:00:00+00:00</time>
        <ele>1978.0</ele>
      </trkpt>
      <trkpt lat="46.946915" lon="11.247">
        <time>1970-01-01T00:00:00+00:00</time>
        <ele>1969.0</ele>
      </trkpt>
      <trkpt lat="46.946857" lon="11.247085">
        <time>1970-01-01T00:00:00+00:00</time>
        <ele>1965.0</ele>
      </trkpt>
      <trkpt lat="46.94676" lon="11.247286">
        <time>1970-01-01T00:00:00+00:00</time>
        <ele>1953.0</ele>
      </trkpt>
      <trkpt lat="46.946723" lon="11.24745">
        <time>1970-01-01T00:00:00+00:00</time>
        <ele>1946.0</ele>
      </trkpt>
      <trkpt lat="46.946767" lon="11.247591">
        <time>1970-01-01T00:00:00+00:00</time>
        <ele>1949.0</ele>
      </trkpt>
      <trkpt lat="46.946838" lon="11.247702">
        <time>1970-01-01T00:00:00+00:00</time>
        <ele>1957.0</ele>
      </trkpt>
      <trkpt lat="46.946844" lon="11.247781">
        <time>1970-01-01T00:00:00+00:00</time>
        <ele>1956.0</ele>
      </trkpt>
      <trkpt lat="46.9468" lon="11.247884">
        <time>1970-01-01T00:00:00+00:00</time>
        <ele>1948.0</ele>
      </trkpt>
      <trkpt lat="46.946789" lon="11.248062">
        <time>1970-01-01T00:00:00+00:00</time>
        <ele>1944.0</ele>
      </trkpt>
      <trkpt lat="46.946806" lon="11.248161">
        <time>1970-01-01T00:00:00+00:00</time>
        <ele>1946.0</ele>
      </trkpt>
      <trkpt lat="46.946862" lon="11.248256">
        <time>1970-01-01T00:00:00+00:00</time>
        <ele>1952.0</ele>
      </trkpt>
      <trkpt lat="46.946976" lon="11.248304">
        <time>1970-01-01T00:00:00+00:00</time>
        <ele>1965.0</ele>
      </trkpt>
      <trkpt lat="46.947007" lon="11.24861">
        <time>1970-01-01T00:00:00+00:00</time>
        <ele>1967.0</ele>
      </trkpt>
      <trkpt lat="46.946983" lon="11.248677">
        <time>1970-01-01T00:00:00+00:00</time>
        <ele>1965.0</ele>
      </trkpt>
      <trkpt lat="46.946908" lon="11.248642">
        <time>1970-01-01T00:00:00+00:00</time>
        <ele>1957.0</ele>
      </trkpt>
      <trkpt lat="46.946882" lon="11.248652">
        <time>1970-01-01T00:00:00+00:00</time>
        <ele>1955.0</ele>
      </trkpt>
      <trkpt lat="46.946809" lon="11.248825">
        <time>1970-01-01T00:00:00+00:00</time>
        <ele>1951.0</ele>
      </trkpt>
      <trkpt lat="46.946735" lon="11.248893">
        <time>1970-01-01T00:00:00+00:00</time>
        <ele>1947.0</ele>
      </trkpt>
      <trkpt lat="46.946694" lon="11.248818">
        <time>1970-01-01T00:00:00+00:00</time>
        <ele>1940.0</ele>
      </trkpt>
      <trkpt lat="46.946646" lon="11.248952">
        <time>1970-01-01T00:00:00+00:00</time>
        <ele>1941.0</ele>
      </trkpt>
      <trkpt lat="46.946598" lon="11.249026">
        <time>1970-01-01T00:00:00+00:00</time>
        <ele>1941.0</ele>
      </trkpt>
      <trkpt lat="46.946598" lon="11.248953">
        <time>1970-01-01T00:00:00+00:00</time>
        <ele>1938.0</ele>
      </trkpt>
      <trkpt lat="46.946574" lon="11.248903">
        <time>1970-01-01T00:00:00+00:00</time>
        <ele>1935.0</ele>
      </trkpt>
      <trkpt lat="46.946537" lon="11.248899">
        <time>1970-01-01T00:00:00+00:00</time>
        <ele>1932.0</ele>
      </trkpt>
      <trkpt lat="46.94652" lon="11.248913">
        <time>1970-01-01T00:00:00+00:00</time>
        <ele>1932.0</ele>
      </trkpt>
      <trkpt lat="46.946477" lon="11.249042">
        <time>1970-01-01T00:00:00+00:00</time>
        <ele>1934.0</ele>
      </trkpt>
      <trkpt lat="46.946417" lon="11.249104">
        <time>1970-01-01T00:00:00+00:00</time>
        <ele>1933.0</ele>
      </trkpt>
      <trkpt lat="46.946399" lon="11.249072">
        <time>1970-01-01T00:00:00+00:00</time>
        <ele>1930.0</ele>
      </trkpt>
      <trkpt lat="46.946414" lon="11.24894">
        <time>1970-01-01T00:00:00+00:00</time>
        <ele>1926.0</ele>
      </trkpt>
      <trkpt lat="46.94636" lon="11.248898">
        <time>1970-01-01T00:00:00+00:00</time>
        <ele>1921.0</ele>
      </trkpt>
      <trkpt lat="46.94632" lon="11.24893">
        <time>1970-01-01T00:00:00+00:00</time>
        <ele>1919.0</ele>
      </trkpt>
      <trkpt lat="46.946245" lon="11.249101">
        <time>1970-01-01T00:00:00+00:00</time>
        <ele>1923.0</ele>
      </trkpt>
      <trkpt lat="46.946224" lon="11.24908">
        <time>1970-01-01T00:00:00+00:00</time>
        <ele>1921.0</ele>
      </trkpt>
      <trkpt lat="46.946238" lon="11.24898">
        <time>1970-01-01T00:00:00+00:00</time>
        <ele>1916.0</ele>
      </trkpt>
      <trkpt lat="46.94623" lon="11.248908">
        <time>1970-01-01T00:00:00+00:00</time>
        <ele>1913.0</ele>
      </trkpt>
      <trkpt lat="46.946182" lon="11.248948">
        <time>1970-01-01T00:00:00+00:00</time>
        <ele>1912.0</ele>
      </trkpt>
      <trkpt lat="46.946106" lon="11.249062">
        <time>1970-01-01T00:00:00+00:00</time>
        <ele>1914.0</ele>
      </trkpt>
      <trkpt lat="46.94608" lon="11.249046">
        <time>1970-01-01T00:00:00+00:00</time>
        <ele>1912.0</ele>
      </trkpt>
      <trkpt lat="46.94607" lon="11.248986">
        <time>1970-01-01T00:00:00+00:00</time>
        <ele>1908.0</ele>
      </trkpt>
      <trkpt lat="46.946125" lon="11.248773">
        <time>1970-01-01T00:00:00+00:00</time>
        <ele>1900.0</ele>
      </trkpt>
      <trkpt lat="46.946119" lon="11.248625">
        <time>1970-01-01T00:00:00+00:00</time>
        <ele>1894.0</ele>
      </trkpt>
      <trkpt lat="46.946" lon="11.248774">
        <time>1970-01-01T00:00:00+00:00</time>
        <ele>1894.0</ele>
      </trkpt>
      <trkpt lat="46.945927" lon="11.24885">
        <time>1970-01-01T00:00:00+00:00</time>
        <ele>1895.0</ele>
      </trkpt>
      <trkpt lat="46.9459" lon="11.248857">
        <time>1970-01-01T00:00:00+00:00</time>
        <ele>1894.0</ele>
      </trkpt>
      <trkpt lat="46.945949" lon="11.248609">
        <time>1970-01-01T00:00:00+00:00</time>
        <ele>1886.0</ele>
      </trkpt>
      <trkpt lat="46.945927" lon="11.248532">
        <time>1970-01-01T00:00:00+00:00</time>
        <ele>1883.0</ele>
      </trkpt>
      <trkpt lat="46.945944" lon="11.248315">
        <time>1970-01-01T00:00:00+00:00</time>
        <ele>1879.0</ele>
      </trkpt>
      <trkpt lat="46.94594" lon="11.248115">
        <time>1970-01-01T00:00:00+00:00</time>
        <ele>1876.0</ele>
      </trkpt>
      <trkpt lat="46.945923" lon="11.248023">
        <time>1970-01-01T00:00:00+00:00</time>
        <ele>1874.0</ele>
      </trkpt>
      <trkpt lat="46.9459" lon="11.248009">
        <time>1970-01-01T00:00:00+00:00</time>
        <ele>1873.0</ele>
      </trkpt>
      <trkpt lat="46.945797" lon="11.248117">
        <time>1970-01-01T00:00:00+00:00</time>
        <ele>1867.0</ele>
      </trkpt>
      <trkpt lat="46.94577" lon="11.248114">
        <time>1970-01-01T00:00:00+00:00</time>
        <ele>1866.0</ele>
      </trkpt>
      <trkpt lat="46.945766" lon="11.247993">
        <time>1970-01-01T00:00:00+00:00</time>
        <ele>1864.0</ele>
      </trkpt>
      <trkpt lat="46.945717" lon="11.248015">
        <time>1970-01-01T00:00:00+00:00</time>
        <ele>1861.0</ele>
      </trkpt>
      <trkpt lat="46.945683" lon="11.248105">
        <time>1970-01-01T00:00:00+00:00</time>
        <ele>1860.0</ele>
      </trkpt>
      <trkpt lat="46.94565" lon="11.248098">
        <time>1970-01-01T00:00:00+00:00</time>
        <ele>1858.0</ele>
      </trkpt>
      <trkpt lat="46.94564" lon="11.248054">
        <time>1970-01-01T00:00:00+00:00</time>
        <ele>1856.0</ele>
      </trkpt>
      <trkpt lat="46.945595" lon="11.248118">
        <time>1970-01-01T00:00:00+00:00</time>
        <ele>1854.0</ele>
      </trkpt>
      <trkpt lat="46.945545" lon="11.248118">
        <time>1970-01-01T00:00:00+00:00</time>
        <ele>1851.0</ele>
      </trkpt>
      <trkpt lat="46.945534" lon="11.248081">
        <time>1970-01-01T00:00:00+00:00</time>
        <ele>1850.0</ele>
      </trkpt>
      <trkpt lat="46.94555" lon="11.247929">
        <time>1970-01-01T00:00:00+00:00</time>
        <ele>1849.0</ele>
      </trkpt>
      <trkpt lat="46.945507" lon="11.24799">
        <time>1970-01-01T00:00:00+00:00</time>
        <ele>1848.0</ele>
      </trkpt>
      <trkpt lat="46.945488" lon="11.247973">
        <time>1970-01-01T00:00:00+00:00</time>
        <ele>1847.0</ele>
      </trkpt>
      <trkpt lat="46.945484" lon="11.247757">
        <time>1970-01-01T00:00:00+00:00</time>
        <ele>1845.0</ele>
      </trkpt>
      <trkpt lat="46.945457" lon="11.247746">
        <time>1970-01-01T00:00:00+00:00</time>
        <ele>1844.0</ele>
      </trkpt>
      <trkpt lat="46.94544" lon="11.247778">
        <time>1970-01-01T00:00:00+00:00</time>
        <ele>1843.0</ele>
      </trkpt>
      <trkpt lat="46.94541" lon="11.247788">
        <time>1970-01-01T00:00:00+00:00</time>
        <ele>1842.0</ele>
      </trkpt>
      <trkpt lat="46.945254" lon="11.248053">
        <time>1970-01-01T00:00:00+00:00</time>
        <ele>1835.0</ele>
      </trkpt>
      <trkpt lat="46.94519" lon="11.248215">
        <time>1970-01-01T00:00:00+00:00</time>
        <ele>1834.0</ele>
      </trkpt>
      <trkpt lat="46.944981" lon="11.248622">
        <time>1970-01-01T00:00:00+00:00</time>
        <ele>1830.0</ele>
      </trkpt>
      <trkpt lat="46.944767" lon="11.248779">
        <time>1970-01-01T00:00:00+00:00</time>
        <ele>1820.0</ele>
      </trkpt>
      <trkpt lat="46.944647" lon="11.248822">
        <time>1970-01-01T00:00:00+00:00</time>
        <ele>1813.0</ele>
      </trkpt>
      <trkpt lat="46.944619" lon="11.248882">
        <time>1970-01-01T00:00:00+00:00</time>
        <ele>1813.0</ele>
      </trkpt>
      <trkpt lat="46.94456" lon="11.24892">
        <time>1970-01-01T00:00:00+00:00</time>
        <ele>1811.0</ele>
      </trkpt>
      <trkpt lat="46.944553" lon="11.249029">
        <time>1970-01-01T00:00:00+00:00</time>
        <ele>1814.0</ele>
      </trkpt>
      <trkpt lat="46.944506" lon="11.249111">
        <time>1970-01-01T00:00:00+00:00</time>
        <ele>1814.0</ele>
      </trkpt>
      <trkpt lat="46.944455" lon="11.249153">
        <time>1970-01-01T00:00:00+00:00</time>
        <ele>1812.0</ele>
      </trkpt>
      <trkpt lat="46.94441" lon="11.249281">
        <time>1970-01-01T00:00:00+00:00</time>
        <ele>1811.0</ele>
      </trkpt>
      <trkpt lat="46.944398" lon="11.249402">
        <time>1970-01-01T00:00:00+00:00</time>
        <ele>1809.0</ele>
      </trkpt>
      <trkpt lat="46.94441" lon="11.249594">
        <time>1970-01-01T00:00:00+00:00</time>
        <ele>1810.0</ele>
      </trkpt>
      <trkpt lat="46.94439" lon="11.249724">
        <time>1970-01-01T00:00:00+00:00</time>
        <ele>1807.0</ele>
      </trkpt>
      <trkpt lat="46.944376" lon="11.249765">
        <time>1970-01-01T00:00:00+00:00</time>
        <ele>1806.0</ele>
      </trkpt>
      <trkpt lat="46.944349" lon="11.249777">
        <time>1970-01-01T00:00:00+00:00</time>
        <ele>1803.0</ele>
      </trkpt>
      <trkpt lat="46.944325" lon="11.250005">
        <time>1970-01-01T00:00:00+00:00</time>
        <ele>1799.0</ele>
      </trkpt>
      <trkpt lat="46.944441" lon="11.250373">
        <time>1970-01-01T00:00:00+00:00</time>
        <ele>1804.0</ele>
      </trkpt>
      <trkpt lat="46.944349" lon="11.25073">
        <time>1970-01-01T00:00:00+00:00</time>
        <ele>1792.0</ele>
      </trkpt>
      <trkpt lat="46.944283" lon="11.250674">
        <time>1970-01-01T00:00:00+00:00</time>
        <ele>1786.0</ele>
      </trkpt>
      <trkpt lat="46.944243" lon="11.250728">
        <time>1970-01-01T00:00:00+00:00</time>
        <ele>1782.0</ele>
      </trkpt>
      <trkpt lat="46.944306" lon="11.25088">
        <time>1970-01-01T00:00:00+00:00</time>
        <ele>1788.0</ele>
      </trkpt>
      <trkpt lat="46.944279" lon="11.251135">
        <time>1970-01-01T00:00:00+00:00</time>
        <ele>1786.0</ele>
      </trkpt>
      <trkpt lat="46.944135" lon="11.251298">
        <time>1970-01-01T00:00:00+00:00</time>
        <ele>1778.0</ele>
      </trkpt>
      <trkpt lat="46.943852" lon="11.251369">
        <time>1970-01-01T00:00:00+00:00</time>
        <ele>1764.0</ele>
      </trkpt>
      <trkpt lat="46.943421" lon="11.251833">
        <time>1970-01-01T00:00:00+00:00</time>
        <ele>1745.0</ele>
      </trkpt>
      <trkpt lat="46.943422" lon="11.252018">
        <time>1970-01-01T00:00:00+00:00</time>
        <ele>1748.0</ele>
      </trkpt>
      <trkpt lat="46.943311" lon="11.252109">
        <time>1970-01-01T00:00:00+00:00</time>
        <ele>1743.0</ele>
      </trkpt>
      <trkpt lat="46.943199" lon="11.25233">
        <time>1970-01-01T00:00:00+00:00</time>
        <ele>1739.0</ele>
      </trkpt>
      <trkpt lat="46.943073" lon="11.252521">
        <time>1970-01-01T00:00:00+00:00</time>
        <ele>1734.0</ele>
      </trkpt>
      <trkpt lat="46.942939" lon="11.252795">
        <time>1970-01-01T00:00:00+00:00</time>
        <ele>1732.0</ele>
      </trkpt>
      <trkpt lat="46.942819" lon="11.252948">
        <time>1970-01-01T00:00:00+00:00</time>
        <ele>1731.0</ele>
      </trkpt>
      <trkpt lat="46.942406" lon="11.253342">
        <time>1970-01-01T00:00:00+00:00</time>
        <ele>1721.0</ele>
      </trkpt>
      <trkpt lat="46.942185" lon="11.253375">
        <time>1970-01-01T00:00:00+00:00</time>
        <ele>1720.0</ele>
      </trkpt>
      <trkpt lat="46.942051" lon="11.253348">
        <time>1970-01-01T00:00:00+00:00</time>
        <ele>1718.0</ele>
      </trkpt>
      <trkpt lat="46.941694" lon="11.253367">
        <time>1970-01-01T00:00:00+00:00</time>
        <ele>1711.0</ele>
      </trkpt>
      <trkpt lat="46.941354" lon="11.253579">
        <time>1970-01-01T00:00:00+00:00</time>
        <ele>1707.0</ele>
      </trkpt>
      <trkpt lat="46.941189" lon="11.2536">
        <time>1970-01-01T00:00:00+00:00</time>
        <ele>1705.0</ele>
      </trkpt>
      <trkpt lat="46.940951" lon="11.253561">
        <time>1970-01-01T00:00:00+00:00</time>
        <ele>1704.0</ele>
      </trkpt>
      <trkpt lat="46.940762" lon="11.253579">
        <time>1970-01-01T00:00:00+00:00</time>
        <ele>1704.0</ele>
      </trkpt>
      <trkpt lat="46.940483" lon="11.253684">
        <time>1970-01-01T00:00:00+00:00</time>
        <ele>1704.0</ele>
      </trkpt>
      <trkpt lat="46.940353" lon="11.253705">
        <time>1970-01-01T00:00:00+00:00</time>
        <ele>1704.0</ele>
      </trkpt>
      <trkpt lat="46.940082" lon="11.253645">
        <time>1970-01-01T00:00:00+00:00</time>
        <ele>1705.0</ele>
      </trkpt>
      <trkpt lat="46.93993" lon="11.253588">
        <time>1970-01-01T00:00:00+00:00</time>
        <ele>1708.0</ele>
      </trkpt>
      <trkpt lat="46.939786" lon="11.253337">
        <time>1970-01-01T00:00:00+00:00</time>
        <ele>1710.0</ele>
      </trkpt>
      <trkpt lat="46.939509" lon="11.252956">
        <time>1970-01-01T00:00:00+00:00</time>
        <ele>1712.0</ele>
      </trkpt>
      <trkpt lat="46.939269" lon="11.252787">
        <time>1970-01-01T00:00:00+00:00</time>
        <ele>1709.0</ele>
      </trkpt>
      <trkpt lat="46.939189" lon="11.252779">
        <time>1970-01-01T00:00:00+00:00</time>
        <ele>1709.0</ele>
      </trkpt>
      <trkpt lat="46.93908" lon="11.252818">
        <time>1970-01-01T00:00:00+00:00</time>
        <ele>1709.0</ele>
      </trkpt>
      <trkpt lat="46.938948" lon="11.25291">
        <time>1970-01-01T00:00:00+00:00</time>
        <ele>1710.0</ele>
      </trkpt>
      <trkpt lat="46.938799" lon="11.252926">
        <time>1970-01-01T00:00:00+00:00</time>
        <ele>1710.0</ele>
      </trkpt>
      <trkpt lat="46.93867" lon="11.252998">
        <time>1970-01-01T00:00:00+00:00</time>
        <ele>1711.0</ele>
      </trkpt>
      <trkpt lat="46.938578" lon="11.253009">
        <time>1970-01-01T00:00:00+00:00</time>
        <ele>1712.0</ele>
      </trkpt>
      <trkpt lat="46.938374" lon="11.252965">
        <time>1970-01-01T00:00:00+00:00</time>
        <ele>1710.0</ele>
      </trkpt>
      <trkpt lat="46.938253" lon="11.252914">
        <time>1970-01-01T00:00:00+00:00</time>
        <ele>1710.0</ele>
      </trkpt>
      <trkpt lat="46.938033" lon="11.252873">
        <time>1970-01-01T00:00:00+00:00</time>
        <ele>1709.0</ele>
      </trkpt>
      <trkpt lat="46.937781" lon="11.252909">
        <time>1970-01-01T00:00:00+00:00</time>
        <ele>1708.0</ele>
      </trkpt>
      <trkpt lat="46.937617" lon="11.252828">
        <time>1970-01-01T00:00:00+00:00</time>
        <ele>1705.0</ele>
      </trkpt>
      <trkpt lat="46.937512" lon="11.252822">
        <time>1970-01-01T00:00:00+00:00</time>
        <ele>1704.0</ele>
      </trkpt>
      <trkpt lat="46.937413" lon="11.252842">
        <time>1970-01-01T00:00:00+00:00</time>
        <ele>1703.0</ele>
      </trkpt>
      <trkpt lat="46.937306" lon="11.253124">
        <time>1970-01-01T00:00:00+00:00</time>
        <ele>1703.0</ele>
      </trkpt>
      <trkpt lat="46.937209" lon="11.253562">
        <time>1970-01-01T00:00:00+00:00</time>
        <ele>1707.0</ele>
      </trkpt>
      <trkpt lat="46.937119" lon="11.253723">
        <time>1970-01-01T00:00:00+00:00</time>
        <ele>1707.0</ele>
      </trkpt>
      <trkpt lat="46.93699" lon="11.253833">
        <time>1970-01-01T00:00:00+00:00</time>
        <ele>1705.0</ele>
      </trkpt>
      <trkpt lat="46.936856" lon="11.253995">
        <time>1970-01-01T00:00:00+00:00</time>
        <ele>1701.0</ele>
      </trkpt>
      <trkpt lat="46.936856" lon="11.253948">
        <time>1970-01-01T00:00:00+00:00</time>
        <ele>1701.0</ele>
      </trkpt>
      <trkpt lat="46.936822" lon="11.253816">
        <time>1970-01-01T00:00:00+00:00</time>
        <ele>1701.0</ele>
      </trkpt>
      <trkpt lat="46.936738" lon="11.253752">
        <time>1970-01-01T00:00:00+00:00</time>
        <ele>1701.0</ele>
      </trkpt>
      <trkpt lat="46.936544" lon="11.25376">
        <time>1970-01-01T00:00:00+00:00</time>
        <ele>1701.0</ele>
      </trkpt>
      <trkpt lat="46.936391" lon="11.253984">
        <time>1970-01-01T00:00:00+00:00</time>
        <ele>1701.0</ele>
      </trkpt>
      <trkpt lat="46.93634" lon="11.254141">
        <time>1970-01-01T00:00:00+00:00</time>
        <ele>1701.0</ele>
      </trkpt>
      <trkpt lat="46.936311" lon="11.254752">
        <time>1970-01-01T00:00:00+00:00</time>
        <ele>1696.0</ele>
      </trkpt>
      <trkpt lat="46.936272" lon="11.254935">
        <time>1970-01-01T00:00:00+00:00</time>
        <ele>1696.0</ele>
      </trkpt>
      <trkpt lat="46.936061" lon="11.255401">
        <time>1970-01-01T00:00:00+00:00</time>
        <ele>1695.0</ele>
      </trkpt>
      <trkpt lat="46.93592" lon="11.255762">
        <time>1970-01-01T00:00:00+00:00</time>
        <ele>1696.0</ele>
      </trkpt>
      <trkpt lat="46.935765" lon="11.256054">
        <time>1970-01-01T00:00:00+00:00</time>
        <ele>1699.0</ele>
      </trkpt>
      <trkpt lat="46.935706" lon="11.256322">
        <time>1970-01-01T00:00:00+00:00</time>
        <ele>1692.0</ele>
      </trkpt>
      <trkpt lat="46.935778" lon="11.256319">
        <time>1970-01-01T00:00:00+00:00</time>
        <ele>1688.0</ele>
      </trkpt>
      <trkpt lat="46.935801" lon="11.256373">
        <time>1970-01-01T00:00:00+00:00</time>
        <ele>1685.0</ele>
      </trkpt>
      <trkpt lat="46.935787" lon="11.256661">
        <time>1970-01-01T00:00:00+00:00</time>
        <ele>1679.0</ele>
      </trkpt>
      <trkpt lat="46.935752" lon="11.256762">
        <time>1970-01-01T00:00:00+00:00</time>
        <ele>1677.0</ele>
      </trkpt>
      <trkpt lat="46.935607" lon="11.256897">
        <time>1970-01-01T00:00:00+00:00</time>
        <ele>1676.0</ele>
      </trkpt>
      <trkpt lat="46.935585" lon="11.256963">
        <time>1970-01-01T00:00:00+00:00</time>
        <ele>1676.0</ele>
      </trkpt>
      <trkpt lat="46.935579" lon="11.257176">
        <time>1970-01-01T00:00:00+00:00</time>
        <ele>1670.0</ele>
      </trkpt>
      <trkpt lat="46.935491" lon="11.257398">
        <time>1970-01-01T00:00:00+00:00</time>
        <ele>1665.0</ele>
      </trkpt>
      <trkpt lat="46.935469" lon="11.257519">
        <time>1970-01-01T00:00:00+00:00</time>
        <ele>1661.0</ele>
      </trkpt>
      <trkpt lat="46.935489" lon="11.257861">
        <time>1970-01-01T00:00:00+00:00</time>
        <ele>1655.0</ele>
      </trkpt>
      <trkpt lat="46.935463" lon="11.257927">
        <time>1970-01-01T00:00:00+00:00</time>
        <ele>1653.0</ele>
      </trkpt>
      <trkpt lat="46.935428" lon="11.25795">
        <time>1970-01-01T00:00:00+00:00</time>
        <ele>1653.0</ele>
      </trkpt>
      <trkpt lat="46.935416" lon="11.258146">
        <time>1970-01-01T00:00:00+00:00</time>
        <ele>1645.0</ele>
      </trkpt>
      <trkpt lat="46.935394" lon="11.258206">
        <time>1970-01-01T00:00:00+00:00</time>
        <ele>1643.0</ele>
      </trkpt>
      <trkpt lat="46.935392" lon="11.258252">
        <time>1970-01-01T00:00:00+00:00</time>
        <ele>1641.0</ele>
      </trkpt>
      <trkpt lat="46.935416" lon="11.25829">
        <time>1970-01-01T00:00:00+00:00</time>
        <ele>1639.0</ele>
      </trkpt>
      <trkpt lat="46.935479" lon="11.258304">
        <time>1970-01-01T00:00:00+00:00</time>
        <ele>1638.0</ele>
      </trkpt>
      <trkpt lat="46.935502" lon="11.258336">
        <time>1970-01-01T00:00:00+00:00</time>
        <ele>1637.0</ele>
      </trkpt>
      <trkpt lat="46.935553" lon="11.258668">
        <time>1970-01-01T00:00:00+00:00</time>
        <ele>1627.0</ele>
      </trkpt>
      <trkpt lat="46.935534" lon="11.258739">
        <time>1970-01-01T00:00:00+00:00</time>
        <ele>1626.0</ele>
      </trkpt>
      <trkpt lat="46.935566" lon="11.258934">
        <time>1970-01-01T00:00:00+00:00</time>
        <ele>1626.0</ele>
      </trkpt>
      <trkpt lat="46.935551" lon="11.259014">
        <time>1970-01-01T00:00:00+00:00</time>
        <ele>1625.0</ele>
      </trkpt>
      <trkpt lat="46.935507" lon="11.259083">
        <time>1970-01-01T00:00:00+00:00</time>
        <ele>1623.0</ele>
      </trkpt>
      <trkpt lat="46.93541" lon="11.259152">
        <time>1970-01-01T00:00:00+00:00</time>
        <ele>1621.0</ele>
      </trkpt>
      <trkpt lat="46.935363" lon="11.259202">
        <time>1970-01-01T00:00:00+00:00</time>
        <ele>1620.0</ele>
      </trkpt>
      <trkpt lat="46.935227" lon="11.259261">
        <time>1970-01-01T00:00:00+00:00</time>
        <ele>1620.0</ele>
      </trkpt>
      <trkpt lat="46.935209" lon="11.259304">
        <time>1970-01-01T00:00:00+00:00</time>
        <ele>1619.0</ele>
      </trkpt>
      <trkpt lat="46.935197" lon="11.259466">
        <time>1970-01-01T00:00:00+00:00</time>
        <ele>1616.0</ele>
      </trkpt>
      <trkpt lat="46.935117" lon="11.259593">
        <time>1970-01-01T00:00:00+00:00</time>
        <ele>1614.0</ele>
      </trkpt>
      <trkpt lat="46.935106" lon="11.259717">
        <time>1970-01-01T00:00:00+00:00</time>
        <ele>1611.0</ele>
      </trkpt>
      <trkpt lat="46.935052" lon="11.259938">
        <time>1970-01-01T00:00:00+00:00</time>
        <ele>1606.0</ele>
      </trkpt>
      <trkpt lat="46.935065" lon="11.260006">
        <time>1970-01-01T00:00:00+00:00</time>
        <ele>1603.0</ele>
      </trkpt>
      <trkpt lat="46.935055" lon="11.260099">
        <time>1970-01-01T00:00:00+00:00</time>
        <ele>1602.0</ele>
      </trkpt>
      <trkpt lat="46.935072" lon="11.26019">
        <time>1970-01-01T00:00:00+00:00</time>
        <ele>1601.0</ele>
      </trkpt>
      <trkpt lat="46.935066" lon="11.260293">
        <time>1970-01-01T00:00:00+00:00</time>
        <ele>1601.0</ele>
      </trkpt>
      <trkpt lat="46.935134" lon="11.26039">
        <time>1970-01-01T00:00:00+00:00</time>
        <ele>1598.0</ele>
      </trkpt>
      <trkpt lat="46.935128" lon="11.260455">
        <time>1970-01-01T00:00:00+00:00</time>
        <ele>1598.0</ele>
      </trkpt>
      <trkpt lat="46.935101" lon="11.260529">
        <time>1970-01-01T00:00:00+00:00</time>
        <ele>1598.0</ele>
      </trkpt>
      <trkpt lat="46.935172" lon="11.260724">
        <time>1970-01-01T00:00:00+00:00</time>
        <ele>1594.0</ele>
      </trkpt>
      <trkpt lat="46.935166" lon="11.260779">
        <time>1970-01-01T00:00:00+00:00</time>
        <ele>1594.0</ele>
      </trkpt>
      <trkpt lat="46.93514" lon="11.260791">
        <time>1970-01-01T00:00:00+00:00</time>
        <ele>1594.0</ele>
      </trkpt>
      <trkpt lat="46.935124" lon="11.260868">
        <time>1970-01-01T00:00:00+00:00</time>
        <ele>1594.0</ele>
      </trkpt>
      <trkpt lat="46.935126" lon="11.261108">
        <time>1970-01-01T00:00:00+00:00</time>
        <ele>1592.0</ele>
      </trkpt>
      <trkpt lat="46.935087" lon="11.261451">
        <time>1970-01-01T00:00:00+00:00</time>
        <ele>1589.0</ele>
      </trkpt>
      <trkpt lat="46.934853" lon="11.261758">
        <time>1970-01-01T00:00:00+00:00</time>
        <ele>1592.0</ele>
      </trkpt>
      <trkpt lat="46.934706" lon="11.262084">
        <time>1970-01-01T00:00:00+00:00</time>
        <ele>1597.0</ele>
      </trkpt>
      <trkpt lat="46.934617" lon="11.26253">
        <time>1970-01-01T00:00:00+00:00</time>
        <ele>1596.0</ele>
      </trkpt>
      <trkpt lat="46.934556" lon="11.262673">
        <time>1970-01-01T00:00:00+00:00</time>
        <ele>1597.0</ele>
      </trkpt>
      <trkpt lat="46.934213" lon="11.263374">
        <time>1970-01-01T00:00:00+00:00</time>
        <ele>1590.0</ele>
      </trkpt>
      <trkpt lat="46.934133" lon="11.263508">
        <time>1970-01-01T00:00:00+00:00</time>
        <ele>1590.0</ele>
      </trkpt>
      <trkpt lat="46.9341" lon="11.263635">
        <time>1970-01-01T00:00:00+00:00</time>
        <ele>1588.0</ele>
      </trkpt>
      <trkpt lat="46.933953" lon="11.263827">
        <time>1970-01-01T00:00:00+00:00</time>
        <ele>1590.0</ele>
      </trkpt>
      <trkpt lat="46.933961" lon="11.264073">
        <time>1970-01-01T00:00:00+00:00</time>
        <ele>1584.0</ele>
      </trkpt>
      <trkpt lat="46.933931" lon="11.264239">
        <time>1970-01-01T00:00:00+00:00</time>
        <ele>1584.0</ele>
      </trkpt>
      <trkpt lat="46.934004" lon="11.264782">
        <time>1970-01-01T00:00:00+00:00</time>
        <ele>1572.0</ele>
      </trkpt>
      <trkpt lat="46.933987" lon="11.265005">
        <time>1970-01-01T00:00:00+00:00</time>
        <ele>1568.0</ele>
      </trkpt>
      <trkpt lat="46.933939" lon="11.265227">
        <time>1970-01-01T00:00:00+00:00</time>
        <ele>1563.0</ele>
      </trkpt>
      <trkpt lat="46.933719" lon="11.265729">
        <time>1970-01-01T00:00:00+00:00</time>
        <ele>1571.0</ele>
      </trkpt>
      <trkpt lat="46.93357" lon="11.266432">
        <time>1970-01-01T00:00:00+00:00</time>
        <ele>1566.0</ele>
      </trkpt>
      <trkpt lat="46.93341" lon="11.26688">
        <time>1970-01-01T00:00:00+00:00</time>
        <ele>1566.0</ele>
      </trkpt>
      <trkpt lat="46.93324" lon="11.26721">
        <time>1970-01-01T00:00:00+00:00</time>
        <ele>1566.0</ele>
      </trkpt>
      <trkpt lat="46.933261" lon="11.267487">
        <time>1970-01-01T00:00:00+00:00</time>
        <ele>1561.0</ele>
      </trkpt>
      <trkpt lat="46.933218" lon="11.267807">
        <time>1970-01-01T00:00:00+00:00</time>
        <ele>1555.0</ele>
      </trkpt>
      <trkpt lat="46.932973" lon="11.268777">
        <time>1970-01-01T00:00:00+00:00</time>
        <ele>1551.0</ele>
      </trkpt>
      <trkpt lat="46.932739" lon="11.269353">
        <time>1970-01-01T00:00:00+00:00</time>
        <ele>1547.0</ele>
      </trkpt>
      <trkpt lat="46.932188" lon="11.270133">
        <time>1970-01-01T00:00:00+00:00</time>
        <ele>1542.0</ele>
      </trkpt>
      <trkpt lat="46.931503" lon="11.270921">
        <time>1970-01-01T00:00:00+00:00</time>
        <ele>1530.0</ele>
      </trkpt>
      <trkpt lat="46.931074" lon="11.271528">
        <time>1970-01-01T00:00:00+00:00</time>
        <ele>1501.0</ele>
      </trkpt>
      <trkpt lat="46.931056" lon="11.271635">
        <time>1970-01-01T00:00:00+00:00</time>
        <ele>1496.0</ele>
      </trkpt>
      <trkpt lat="46.931028" lon="11.271688">
        <time>1970-01-01T00:00:00+00:00</time>
        <ele>1494.0</ele>
      </trkpt>
      <trkpt lat="46.930814" lon="11.271915">
        <time>1970-01-01T00:00:00+00:00</time>
        <ele>1483.0</ele>
      </trkpt>
      <trkpt lat="46.930739" lon="11.272063">
        <time>1970-01-01T00:00:00+00:00</time>
        <ele>1474.0</ele>
      </trkpt>
      <trkpt lat="46.930689" lon="11.272314">
        <time>1970-01-01T00:00:00+00:00</time>
        <ele>1464.0</ele>
      </trkpt>
      <trkpt lat="46.930704" lon="11.272586">
        <time>1970-01-01T00:00:00+00:00</time>
        <ele>1458.0</ele>
      </trkpt>
      <trkpt lat="46.930734" lon="11.272769">
        <time>1970-01-01T00:00:00+00:00</time>
        <ele>1456.0</ele>
      </trkpt>
      <trkpt lat="46.930714" lon="11.272803">
        <time>1970-01-01T00:00:00+00:00</time>
        <ele>1455.0</ele>
      </trkpt>
      <trkpt lat="46.930554" lon="11.272823">
        <time>1970-01-01T00:00:00+00:00</time>
        <ele>1447.0</ele>
      </trkpt>
      <trkpt lat="46.930453" lon="11.272777">
        <time>1970-01-01T00:00:00+00:00</time>
        <ele>1441.0</ele>
      </trkpt>
      <trkpt lat="46.930369" lon="11.272655">
        <time>1970-01-01T00:00:00+00:00</time>
        <ele>1438.0</ele>
      </trkpt>
      <trkpt lat="46.930182" lon="11.272493">
        <time>1970-01-01T00:00:00+00:00</time>
        <ele>1432.0</ele>
      </trkpt>
      <trkpt lat="46.930115" lon="11.272309">
        <time>1970-01-01T00:00:00+00:00</time>
        <ele>1432.0</ele>
      </trkpt>
      <trkpt lat="46.930028" lon="11.272251">
        <time>1970-01-01T00:00:00+00:00</time>
        <ele>1429.0</ele>
      </trkpt>
      <trkpt lat="46.930002" lon="11.272201">
        <time>1970-01-01T00:00:00+00:00</time>
        <ele>1429.0</ele>
      </trkpt>
      <trkpt lat="46.929978" lon="11.271969">
        <time>1970-01-01T00:00:00+00:00</time>
        <ele>1432.0</ele>
      </trkpt>
      <trkpt lat="46.929889" lon="11.271891">
        <time>1970-01-01T00:00:00+00:00</time>
        <ele>1427.0</ele>
      </trkpt>
      <trkpt lat="46.929803" lon="11.271737">
        <time>1970-01-01T00:00:00+00:00</time>
        <ele>1425.0</ele>
      </trkpt>
      <trkpt lat="46.929777" lon="11.27177">
        <time>1970-01-01T00:00:00+00:00</time>
        <ele>1423.0</ele>
      </trkpt>
      <trkpt lat="46.929804" lon="11.271934">
        <time>1970-01-01T00:00:00+00:00</time>
        <ele>1422.0</ele>
      </trkpt>
      <trkpt lat="46.929787" lon="11.271968">
        <time>1970-01-01T00:00:00+00:00</time>
        <ele>1421.0</ele>
      </trkpt>
      <trkpt lat="46.92974" lon="11.271883">
        <time>1970-01-01T00:00:00+00:00</time>
        <ele>1419.0</ele>
      </trkpt>
      <trkpt lat="46.92966" lon="11.271792">
        <time>1970-01-01T00:00:00+00:00</time>
        <ele>1418.0</ele>
      </trkpt>
      <trkpt lat="46.929536" lon="11.271688">
        <time>1970-01-01T00:00:00+00:00</time>
        <ele>1415.0</ele>
      </trkpt>
      <trkpt lat="46.929511" lon="11.271714">
        <time>1970-01-01T00:00:00+00:00</time>
        <ele>1415.0</ele>
      </trkpt>
      <trkpt lat="46.929387" lon="11.271821">
        <time>1970-01-01T00:00:00+00:00</time>
        <ele>1412.0</ele>
      </trkpt>
      <trkpt lat="46.929271" lon="11.271815">
        <time>1970-01-01T00:00:00+00:00</time>
        <ele>1410.0</ele>
      </trkpt>
      <trkpt lat="46.92928" lon="11.271775">
        <time>1970-01-01T00:00:00+00:00</time>
        <ele>1411.0</ele>
      </trkpt>
      <trkpt lat="46.92927" lon="11.271721">
        <time>1970-01-01T00:00:00+00:00</time>
        <ele>1411.0</ele>
      </trkpt>
      <trkpt lat="46.929245" lon="11.271682">
        <time>1970-01-01T00:00:00+00:00</time>
        <ele>1411.0</ele>
      </trkpt>
      <trkpt lat="46.929145" lon="11.271621">
        <time>1970-01-01T00:00:00+00:00</time>
        <ele>1412.0</ele>
      </trkpt>
    </trkseg>
  </trk>
</gpx>
